Time,TemperatureF,DewpointF,PressureIn,WindDirection,WindDirectionDegrees,WindSpeedMPH,WindSpeedGustMPH,Humidity,HourlyPrecipIn,Conditions,Clouds,dailyrainin,SoftwareType,DateUTC
2013-02-19 00:00:00,31.7,29.7,29.60,ENE,68,1.1,1.8,92,0.00,,,0.00,WUHU216HW,2013-02-19 08:00:00,
2013-02-19 00:05:00,31.9,30.1,29.60,ENE,68,0.0,1.3,93,0.00,,,0.00,WUHU216HW,2013-02-19 08:05:00,
2013-02-19 00:10:00,31.7,29.7,29.60,ENE,68,0.0,1.3,92,0.00,,,0.00,WUHU216HW,2013-02-19 08:10:00,
2013-02-19 00:15:00,31.5,29.5,29.60,West,270,0.0,1.8,92,0.00,,,0.00,WUHU216HW,2013-02-19 08:15:00,
2013-02-19 00:20:00,31.7,29.9,29.60,NE,45,0.0,1.8,93,0.00,,,0.00,WUHU216HW,2013-02-19 08:20:00,
2013-02-19 00:25:00,31.9,30.1,29.60,North,0,0.4,1.3,93,0.00,,,0.00,WUHU216HW,2013-02-19 08:25:00,
2013-02-19 00:30:00,32.0,30.2,29.60,North,0,0.0,1.3,93,0.00,,,0.00,WUHU216HW,2013-02-19 08:30:00,
2013-02-19 00:35:00,32.0,30.1,29.60,North,0,0.0,0.0,92,0.00,,,0.00,WUHU216HW,2013-02-19 08:35:00,
2013-02-19 00:40:00,32.0,30.2,29.60,North,0,0.0,0.0,93,0.00,,,0.00,WUHU216HW,2013-02-19 08:40:00,
2013-02-19 00:45:00,32.0,30.1,29.59,WSW,248,1.1,1.1,92,0.00,,,0.00,WUHU216HW,2013-02-19 08:45:00,
2013-02-19 00:50:00,32.0,30.1,29.59,SE,135,0.0,1.1,92,0.00,,,0.00,WUHU216HW,2013-02-19 08:50:00,
2013-02-19 00:55:00,32.2,30.4,29.59,ESE,113,0.0,0.9,93,0.00,,,0.00,WUHU216HW,2013-02-19 08:55:00,
2013-02-19 01:00:00,32.4,30.3,29.59,ESE,113,0.0,1.1,92,0.00,,,0.00,WUHU216HW,2013-02-19 09:00:00,
2013-02-19 01:05:00,32.4,30.3,29.59,ESE,113,0.0,1.1,92,0.00,,,0.00,WUHU216HW,2013-02-19 09:05:00,
2013-02-19 01:10:00,32.4,30.3,29.59,ESE,113,0.0,0.0,92,0.00,,,0.00,WUHU216HW,2013-02-19 09:10:00,
2013-02-19 01:15:00,32.6,30.5,29.58,SSW,203,0.0,0.0,92,0.00,,,0.00,WUHU216HW,2013-02-19 09:15:00,
2013-02-19 01:20:00,32.6,30.5,29.58,SSW,203,0.0,0.7,92,0.00,,,0.00,WUHU216HW,2013-02-19 09:20:00,
2013-02-19 01:25:00,32.8,30.7,29.58,SSW,203,0.0,0.7,92,0.00,,,0.00,WUHU216HW,2013-02-19 09:25:00,
2013-02-19 01:30:00,32.8,30.7,29.58,SSW,203,0.0,0.0,92,0.00,,,0.00,WUHU216HW,2013-02-19 09:30:00,
2013-02-19 01:35:00,32.8,30.7,29.58,SSE,158,0.0,0.4,92,0.00,,,0.00,WUHU216HW,2013-02-19 09:35:00,
2013-02-19 01:40:00,32.8,30.7,29.58,SSE,158,0.0,0.4,92,0.00,,,0.00,WUHU216HW,2013-02-19 09:40:00,
2013-02-19 01:45:00,32.8,30.7,29.58,SSE,158,0.0,0.0,92,0.00,,,0.00,WUHU216HW,2013-02-19 09:45:00,
2013-02-19 01:50:00,32.8,30.7,29.58,SSE,158,0.0,0.0,92,0.00,,,0.00,WUHU216HW,2013-02-19 09:50:00,
2013-02-19 01:55:00,32.9,31.2,29.58,ENE,68,0.9,1.3,93,0.00,,,0.00,WUHU216HW,2013-02-19 09:55:00,
2013-02-19 02:00:00,32.9,31.2,29.58,North,0,0.0,1.3,93,0.00,,,0.00,WUHU216HW,2013-02-19 10:00:00,
2013-02-19 02:05:00,33.1,31.1,29.58,West,270,0.0,1.1,92,0.00,,,0.00,WUHU216HW,2013-02-19 10:05:00,
2013-02-19 02:10:00,32.9,30.9,29.58,SW,225,0.0,0.0,92,0.00,,,0.00,WUHU216HW,2013-02-19 10:10:00,
2013-02-19 02:15:00,32.8,30.7,29.58,SW,225,0.0,0.0,92,0.00,,,0.00,WUHU216HW,2013-02-19 10:15:00,
2013-02-19 02:20:00,32.4,30.3,29.57,SW,225,0.0,0.0,92,0.00,,,0.00,WUHU216HW,2013-02-19 10:20:00,
2013-02-19 02:25:00,32.0,30.1,29.58,SW,225,0.0,0.0,92,0.00,,,0.00,WUHU216HW,2013-02-19 10:25:00,
2013-02-19 02:30:00,31.7,29.9,29.58,NNE,23,0.0,0.0,93,0.00,,,0.00,WUHU216HW,2013-02-19 10:30:00,
2013-02-19 02:35:00,31.7,29.9,29.57,NE,45,0.2,0.7,93,0.00,,,0.00,WUHU216HW,2013-02-19 10:35:00,
2013-02-19 02:40:00,31.3,29.5,29.57,South,180,0.4,0.7,93,0.00,,,0.00,WUHU216HW,2013-02-19 10:40:00,
2013-02-19 02:45:00,31.3,29.5,29.57,East,90,0.9,0.9,93,0.00,,,0.00,WUHU216HW,2013-02-19 10:45:00,
2013-02-19 02:50:00,31.1,29.3,29.57,North,0,0.7,0.9,93,0.00,,,0.00,WUHU216HW,2013-02-19 10:50:00,
2013-02-19 02:55:00,30.8,29.0,29.57,North,0,0.4,0.7,93,0.00,,,0.00,WUHU216HW,2013-02-19 10:55:00,
2013-02-19 03:00:00,30.6,28.8,29.57,North,0,0.0,0.7,93,0.00,,,0.00,WUHU216HW,2013-02-19 11:00:00,
2013-02-19 03:05:00,30.8,29.0,29.57,ESE,113,0.0,0.0,93,0.00,,,0.00,WUHU216HW,2013-02-19 11:05:00,
2013-02-19 03:10:00,30.6,28.8,29.57,South,180,0.0,0.0,93,0.00,,,0.00,WUHU216HW,2013-02-19 11:10:00,
2013-02-19 03:15:00,30.2,28.4,29.57,South,180,0.0,0.0,93,0.00,,,0.00,WUHU216HW,2013-02-19 11:15:00,
2013-02-19 03:20:00,30.2,28.4,29.57,SSE,158,0.7,1.1,93,0.00,,,0.00,WUHU216HW,2013-02-19 11:20:00,
2013-02-19 03:25:00,30.2,28.4,29.57,SSE,158,0.0,1.1,93,0.00,,,0.00,WUHU216HW,2013-02-19 11:25:00,
2013-02-19 03:30:00,30.2,28.4,29.57,NNE,23,0.0,0.7,93,0.00,,,0.00,WUHU216HW,2013-02-19 11:30:00,
2013-02-19 03:35:00,30.1,28.3,29.57,WSW,248,0.0,0.4,93,0.00,,,0.00,WUHU216HW,2013-02-19 11:35:00,
2013-02-19 03:40:00,30.1,28.3,29.57,SW,225,0.0,0.4,93,0.00,,,0.00,WUHU216HW,2013-02-19 11:40:00,
2013-02-19 03:45:00,30.1,28.3,29.58,SSE,158,0.0,0.4,93,0.00,,,0.00,WUHU216HW,2013-02-19 11:45:00,
2013-02-19 03:50:00,29.9,28.1,29.58,NNE,23,0.7,0.9,93,0.00,,,0.00,WUHU216HW,2013-02-19 11:50:00,
2013-02-19 03:55:00,30.1,28.3,29.57,NNE,23,0.7,0.9,93,0.00,,,0.00,WUHU216HW,2013-02-19 11:55:00,
2013-02-19 04:00:00,30.2,28.4,29.57,SW,225,0.0,0.7,93,0.00,,,0.00,WUHU216HW,2013-02-19 12:00:00,
2013-02-19 04:05:00,30.4,28.6,29.58,SSW,203,0.0,0.4,93,0.00,,,0.00,WUHU216HW,2013-02-19 12:05:00,
2013-02-19 04:10:00,30.4,28.6,29.57,SSW,203,0.0,0.4,93,0.00,,,0.00,WUHU216HW,2013-02-19 12:10:00,
2013-02-19 04:15:00,30.4,28.6,29.58,SSW,203,0.0,0.0,93,0.00,,,0.00,WUHU216HW,2013-02-19 12:15:00,
2013-02-19 04:20:00,30.6,28.8,29.58,SSE,158,0.0,0.0,93,0.00,,,0.00,WUHU216HW,2013-02-19 12:20:00,
2013-02-19 04:25:00,30.6,28.8,29.58,ENE,68,0.4,0.4,93,0.00,,,0.00,WUHU216HW,2013-02-19 12:25:00,
2013-02-19 04:30:00,30.8,29.0,29.58,SSW,203,0.0,0.7,93,0.00,,,0.00,WUHU216HW,2013-02-19 12:30:00,
2013-02-19 04:35:00,31.0,29.2,29.57,South,180,1.1,1.3,93,0.00,,,0.00,WUHU216HW,2013-02-19 12:35:00,
2013-02-19 04:40:00,31.0,29.2,29.58,SSE,158,0.0,1.3,93,0.00,,,0.00,WUHU216HW,2013-02-19 12:40:00,
2013-02-19 04:45:00,30.8,29.0,29.58,North,0,0.0,1.1,93,0.00,,,0.00,WUHU216HW,2013-02-19 12:45:00,
2013-02-19 04:50:00,30.8,29.0,29.57,North,0,0.0,0.7,93,0.00,,,0.00,WUHU216HW,2013-02-19 12:50:00,
2013-02-19 04:55:00,30.8,29.0,29.58,SSW,203,0.0,0.4,93,0.00,,,0.00,WUHU216HW,2013-02-19 12:55:00,
2013-02-19 05:00:00,30.6,28.8,29.58,North,0,0.4,1.1,93,0.00,,,0.00,WUHU216HW,2013-02-19 13:00:00,
2013-02-19 05:05:00,30.8,29.0,29.58,SSE,158,0.7,1.1,93,0.00,,,0.00,WUHU216HW,2013-02-19 13:05:00,
2013-02-19 05:10:00,31.0,29.2,29.58,NNE,23,1.1,1.1,93,0.00,,,0.00,WUHU216HW,2013-02-19 13:10:00,
2013-02-19 05:15:00,31.0,29.2,29.58,WNW,293,1.1,1.6,93,0.00,,,0.00,WUHU216HW,2013-02-19 13:15:00,
2013-02-19 05:20:00,31.1,29.3,29.59,SSE,158,0.7,1.6,93,0.00,,,0.00,WUHU216HW,2013-02-19 13:20:00,
2013-02-19 05:25:00,31.1,29.3,29.59,SE,135,0.0,0.7,93,0.00,,,0.00,WUHU216HW,2013-02-19 13:25:00,
2013-02-19 05:30:00,31.1,29.3,29.59,South,180,0.4,0.7,93,0.00,,,0.00,WUHU216HW,2013-02-19 13:30:00,
2013-02-19 05:35:00,31.1,29.3,29.59,South,180,0.2,0.7,93,0.00,,,0.00,WUHU216HW,2013-02-19 13:35:00,
2013-02-19 05:40:00,31.1,29.3,29.59,ENE,68,0.7,0.7,93,0.00,,,0.00,WUHU216HW,2013-02-19 13:40:00,
2013-02-19 05:45:00,31.3,29.5,29.59,ENE,68,0.0,0.7,93,0.00,,,0.00,WUHU216HW,2013-02-19 13:45:00,
2013-02-19 05:50:00,31.3,29.5,29.59,WNW,293,0.4,0.4,93,0.00,,,0.00,WUHU216HW,2013-02-19 13:50:00,
2013-02-19 05:55:00,31.3,29.5,29.60,WNW,293,0.0,0.4,93,0.00,,,0.00,WUHU216HW,2013-02-19 13:55:00,
2013-02-19 06:00:00,31.5,29.7,29.60,WNW,293,0.0,0.2,93,0.00,,,0.00,WUHU216HW,2013-02-19 14:00:00,
2013-02-19 06:05:00,31.5,29.7,29.59,WNW,293,0.0,0.0,93,0.00,,,0.00,WUHU216HW,2013-02-19 14:05:00,
2013-02-19 06:10:00,31.5,29.7,29.60,NW,315,0.0,0.0,93,0.00,,,0.00,WUHU216HW,2013-02-19 14:10:00,
2013-02-19 06:15:00,31.7,29.9,29.60,ENE,68,0.4,0.4,93,0.00,,,0.00,WUHU216HW,2013-02-19 14:15:00,
2013-02-19 06:20:00,31.7,29.9,29.60,ENE,68,0.4,0.4,93,0.00,,,0.00,WUHU216HW,2013-02-19 14:20:00,
2013-02-19 06:25:00,31.7,29.9,29.60,ENE,68,0.0,0.4,93,0.00,,,0.00,WUHU216HW,2013-02-19 14:25:00,
2013-02-19 06:30:00,31.7,29.9,29.60,South,180,0.2,0.7,93,0.00,,,0.00,WUHU216HW,2013-02-19 14:30:00,
2013-02-19 06:35:00,31.9,30.1,29.60,South,180,0.0,0.7,93,0.00,,,0.00,WUHU216HW,2013-02-19 14:35:00,
2013-02-19 06:40:00,31.9,30.1,29.60,South,180,0.0,0.0,93,0.00,,,0.00,WUHU216HW,2013-02-19 14:40:00,
2013-02-19 06:45:00,31.9,30.1,29.60,South,180,0.0,0.0,93,0.00,,,0.00,WUHU216HW,2013-02-19 14:45:00,
2013-02-19 06:50:00,31.9,30.1,29.60,South,180,0.0,0.0,93,0.00,,,0.00,WUHU216HW,2013-02-19 14:50:00,
2013-02-19 06:55:00,31.7,29.9,29.60,South,180,0.0,0.0,93,0.00,,,0.00,WUHU216HW,2013-02-19 14:55:00,
2013-02-19 07:00:00,31.9,30.1,29.60,North,0,0.4,0.4,93,0.00,,,0.00,WUHU216HW,2013-02-19 15:00:00,
2013-02-19 07:05:00,32.0,30.2,29.61,North,0,0.0,0.7,93,0.00,,,0.00,WUHU216HW,2013-02-19 15:05:00,
2013-02-19 07:10:00,32.0,30.2,29.60,NNE,23,0.0,0.7,93,0.00,,,0.00,WUHU216HW,2013-02-19 15:10:00,
2013-02-19 07:15:00,32.0,30.2,29.60,NNE,23,0.0,0.0,93,0.00,,,0.00,WUHU216HW,2013-02-19 15:15:00,
2013-02-19 07:20:00,32.2,30.4,29.61,NNE,23,0.0,0.0,93,0.00,,,0.00,WUHU216HW,2013-02-19 15:20:00,
2013-02-19 07:25:00,32.2,30.4,29.61,South,180,0.9,0.9,93,0.00,,,0.00,WUHU216HW,2013-02-19 15:25:00,
2013-02-19 07:30:00,32.2,30.4,29.61,South,180,0.0,0.9,93,0.00,,,0.00,WUHU216HW,2013-02-19 15:30:00,
2013-02-19 07:35:00,32.2,30.4,29.61,South,180,0.0,0.7,93,0.00,,,0.00,WUHU216HW,2013-02-19 15:35:00,
2013-02-19 07:40:00,32.2,30.4,29.61,South,180,0.0,0.0,93,0.00,,,0.00,WUHU216HW,2013-02-19 15:40:00,
2013-02-19 07:45:00,32.4,30.6,29.61,South,180,0.0,0.4,93,0.00,,,0.00,WUHU216HW,2013-02-19 15:45:00,
2013-02-19 07:50:00,32.8,31.0,29.61,South,180,0.0,0.4,93,0.00,,,0.00,WUHU216HW,2013-02-19 15:50:00,
2013-02-19 07:55:00,32.8,31.0,29.61,South,180,0.0,0.0,93,0.00,,,0.00,WUHU216HW,2013-02-19 15:55:00,
2013-02-19 08:00:00,32.9,31.2,29.61,North,0,0.7,0.7,93,0.00,,,0.00,WUHU216HW,2013-02-19 16:00:00,
2013-02-19 08:05:00,33.3,31.7,29.62,North,0,0.4,1.1,94,0.00,,,0.00,WUHU216HW,2013-02-19 16:05:00,
2013-02-19 08:10:00,33.5,31.9,29.62,NNE,23,0.0,1.1,94,0.00,,,0.00,WUHU216HW,2013-02-19 16:10:00,
2013-02-19 08:15:00,33.7,32.0,29.62,NNE,23,0.0,0.4,94,0.00,,,0.00,WUHU216HW,2013-02-19 16:15:00,
2013-02-19 08:20:00,34.0,32.7,29.62,NNE,23,0.0,0.0,95,0.00,,,0.00,WUHU216HW,2013-02-19 16:20:00,
2013-02-19 08:25:00,34.4,32.8,29.62,NNE,23,0.0,0.0,94,0.00,,,0.00,WUHU216HW,2013-02-19 16:25:00,
2013-02-19 08:30:00,34.9,33.6,29.62,NNE,23,0.0,0.0,95,0.00,,,0.00,WUHU216HW,2013-02-19 16:30:00,
2013-02-19 08:35:00,35.3,33.9,29.62,NNE,23,0.0,0.0,95,0.00,,,0.00,WUHU216HW,2013-02-19 16:35:00,
2013-02-19 08:40:00,36.5,35.2,29.62,ENE,68,0.0,0.0,95,0.00,,,0.00,WUHU216HW,2013-02-19 16:40:00,
2013-02-19 08:45:00,38.3,36.7,29.63,ENE,68,0.0,0.0,94,0.00,,,0.00,WUHU216HW,2013-02-19 16:45:00,
2013-02-19 08:50:00,39.2,37.6,29.63,ENE,68,0.7,0.7,94,0.00,,,0.00,WUHU216HW,2013-02-19 16:50:00,
2013-02-19 08:55:00,40.0,38.1,29.63,NE,45,0.7,1.1,93,0.00,,,0.00,WUHU216HW,2013-02-19 16:55:00,
2013-02-19 09:00:00,40.0,37.8,29.63,NE,45,0.0,1.1,92,0.00,,,0.00,WUHU216HW,2013-02-19 17:00:00,
2013-02-19 09:05:00,40.3,37.9,29.63,NE,45,1.1,1.3,91,0.00,,,0.00,WUHU216HW,2013-02-19 17:05:00,
2013-02-19 09:10:00,41.0,38.3,29.63,NE,45,0.2,1.3,90,0.00,,,0.00,WUHU216HW,2013-02-19 17:10:00,
2013-02-19 09:15:00,42.1,38.2,29.63,East,90,0.4,1.1,86,0.00,,,0.00,WUHU216HW,2013-02-19 17:15:00,
2013-02-19 09:20:00,42.5,38.3,29.63,East,90,0.7,1.1,85,0.00,,,0.00,WUHU216HW,2013-02-19 17:20:00,
2013-02-19 09:25:00,40.7,36.2,29.63,NE,45,0.2,1.1,84,0.00,,,0.00,WUHU216HW,2013-02-19 17:25:00,
2013-02-19 09:30:00,40.3,36.5,29.64,East,90,0.7,1.8,86,0.00,,,0.00,WUHU216HW,2013-02-19 17:30:00,
2013-02-19 09:35:00,40.3,35.8,29.64,NE,45,1.1,1.8,84,0.00,,,0.00,WUHU216HW,2013-02-19 17:35:00,
2013-02-19 09:40:00,40.5,35.7,29.64,North,0,0.2,1.6,83,0.00,,,0.00,WUHU216HW,2013-02-19 17:40:00,
2013-02-19 09:46:00,41.0,36.6,29.64,North,0,1.1,1.8,84,0.00,,,0.00,WUHU216HW,2013-02-19 17:46:00,
2013-02-19 09:51:00,41.8,37.3,29.64,NNW,338,0.7,2.9,84,0.00,,,0.00,WUHU216HW,2013-02-19 17:51:00,
2013-02-19 09:56:00,42.1,35.4,29.64,NNW,338,1.8,3.1,77,0.00,,,0.00,WUHU216HW,2013-02-19 17:56:00,
2013-02-19 10:01:00,42.5,37.0,29.64,WNW,293,1.1,3.1,81,0.00,,,0.00,WUHU216HW,2013-02-19 18:01:00,
2013-02-19 10:06:00,42.7,36.3,29.64,NW,315,1.1,2.2,78,0.00,,,0.00,WUHU216HW,2013-02-19 18:06:00,
2013-02-19 10:11:00,43.2,36.5,29.64,NW,315,0.0,2.2,77,0.00,,,0.00,WUHU216HW,2013-02-19 18:11:00,
2013-02-19 10:16:00,44.8,36.4,29.64,ENE,68,2.0,2.5,72,0.00,,,0.00,WUHU216HW,2013-02-19 18:16:00,
2013-02-19 10:21:00,45.4,37.5,29.64,North,0,2.0,3.4,74,0.00,,,0.00,WUHU216HW,2013-02-19 18:21:00,
2013-02-19 10:26:00,45.7,36.9,29.64,ENE,68,2.0,3.4,71,0.00,,,0.00,WUHU216HW,2013-02-19 18:26:00,
2013-02-19 10:31:00,46.3,36.7,29.64,NNW,338,0.4,2.5,69,0.00,,,0.00,WUHU216HW,2013-02-19 18:31:00,
2013-02-19 10:36:00,46.6,37.0,29.64,South,180,0.7,2.5,69,0.00,,,0.00,WUHU216HW,2013-02-19 18:36:00,
2013-02-19 10:41:00,47.7,37.6,29.64,SW,225,1.1,1.8,68,0.00,,,0.00,WUHU216HW,2013-02-19 18:41:00,
2013-02-19 10:46:00,49.5,37.5,29.64,SE,135,1.6,2.9,63,0.00,,,0.00,WUHU216HW,2013-02-19 18:46:00,
2013-02-19 10:51:00,50.8,39.4,29.64,NW,315,3.1,3.1,65,0.00,,,0.00,WUHU216HW,2013-02-19 18:51:00,
2013-02-19 10:56:00,50.6,38.0,29.64,WSW,248,1.8,3.1,62,0.00,,,0.00,WUHU216HW,2013-02-19 18:56:00,
2013-02-19 11:01:00,50.0,35.4,29.64,NNE,23,2.0,3.1,57,0.00,,,0.00,WUHU216HW,2013-02-19 19:01:00,
2013-02-19 11:06:00,49.5,36.6,29.65,NW,315,4.3,4.3,61,0.00,,,0.00,WUHU216HW,2013-02-19 19:06:00,
2013-02-19 11:11:00,49.5,36.3,29.65,East,90,0.9,4.3,60,0.00,,,0.00,WUHU216HW,2013-02-19 19:11:00,
2013-02-19 11:16:00,49.1,35.9,29.65,NW,315,1.1,6.3,60,0.00,,,0.00,WUHU216HW,2013-02-19 19:16:00,
2013-02-19 11:21:00,48.8,35.1,29.65,NNW,338,3.4,6.3,59,0.00,,,0.00,WUHU216HW,2013-02-19 19:21:00,
2013-02-19 11:26:00,49.9,37.4,29.65,WNW,293,0.7,4.7,62,0.00,,,0.00,WUHU216HW,2013-02-19 19:26:00,
2013-02-19 11:28:00,50.9,38.0,29.65,SSW,203,0.2,3.8,61,0.00,,,0.00,WUHU216HW,2013-02-19 19:28:00,
2013-02-19 11:29:00,50.9,37.1,29.65,SW,225,1.8,3.4,59,0.00,,,0.00,WUHU216HW,2013-02-19 19:29:00,
2013-02-19 11:31:00,50.9,37.1,29.65,NW,315,5.4,5.4,59,0.00,,,0.00,WUHU216HW,2013-02-19 19:31:00,
2013-02-19 11:32:00,50.8,36.5,29.65,NW,315,5.4,5.4,58,0.00,,,0.00,WUHU216HW,2013-02-19 19:32:00,
2013-02-19 11:33:00,50.6,35.4,29.64,North,0,5.4,5.4,56,0.00,,,0.00,WUHU216HW,2013-02-19 19:33:00,
2013-02-19 11:34:00,50.2,34.7,29.65,North,0,4.7,5.4,55,0.00,,,0.00,WUHU216HW,2013-02-19 19:34:00,
2013-02-19 11:36:00,49.9,36.5,29.64,South,180,0.4,5.4,60,0.00,,,0.00,WUHU216HW,2013-02-19 19:36:00,
2013-02-19 11:37:00,49.7,36.8,29.65,WNW,293,1.8,5.4,61,0.00,,,0.00,WUHU216HW,2013-02-19 19:37:00,
2013-02-19 11:38:00,49.7,37.2,29.65,SSW,203,1.6,5.4,62,0.00,,,0.00,WUHU216HW,2013-02-19 19:38:00,
2013-02-19 11:39:00,49.9,35.2,29.64,SW,225,2.2,5.4,57,0.00,,,0.00,WUHU216HW,2013-02-19 19:39:00,
2013-02-19 11:41:00,49.9,36.5,29.64,SE,135,3.1,5.4,60,0.00,,,0.00,WUHU216HW,2013-02-19 19:41:00,
2013-02-19 11:42:00,50.0,37.5,29.64,NNW,338,1.8,5.4,62,0.00,,,0.00,WUHU216HW,2013-02-19 19:42:00,
2013-02-19 11:43:00,50.2,37.7,29.65,North,0,5.4,5.4,62,0.00,,,0.00,WUHU216HW,2013-02-19 19:43:00,
2013-02-19 11:44:00,50.6,38.0,29.65,WNW,293,4.0,5.4,62,0.00,,,0.00,WUHU216HW,2013-02-19 19:44:00,
2013-02-19 11:46:00,50.9,37.5,29.65,WSW,248,2.2,5.4,60,0.00,,,0.00,WUHU216HW,2013-02-19 19:46:00,
2013-02-19 11:47:00,51.1,37.7,29.64,WSW,248,1.6,5.4,60,0.00,,,0.00,WUHU216HW,2013-02-19 19:47:00,
2013-02-19 11:48:00,51.3,37.9,29.64,WNW,293,1.8,5.4,60,0.00,,,0.00,WUHU216HW,2013-02-19 19:48:00,
2013-02-19 11:49:00,51.5,36.2,29.64,NNW,338,8.3,8.3,56,0.00,,,0.00,WUHU216HW,2013-02-19 19:49:00,
2013-02-19 11:51:00,51.5,36.6,29.64,North,0,1.8,8.3,57,0.00,,,0.00,WUHU216HW,2013-02-19 19:51:00,
2013-02-19 11:52:00,51.3,36.6,29.64,NW,315,6.0,8.3,57,0.00,,,0.00,WUHU216HW,2013-02-19 19:52:00,
2013-02-19 11:53:00,51.1,36.8,29.64,North,0,3.4,8.3,58,0.00,,,0.00,WUHU216HW,2013-02-19 19:53:00,
2013-02-19 11:54:00,51.3,37.0,29.64,WSW,248,1.8,8.3,58,0.00,,,0.00,WUHU216HW,2013-02-19 19:54:00,
2013-02-19 11:56:00,51.3,36.6,29.64,NNW,338,2.0,8.3,57,0.00,,,0.00,WUHU216HW,2013-02-19 19:56:00,
2013-02-19 11:57:00,51.1,35.9,29.64,NNW,338,3.6,8.3,56,0.00,,,0.00,WUHU216HW,2013-02-19 19:57:00,
2013-02-19 11:58:00,51.1,36.4,29.64,North,0,7.6,8.3,57,0.00,,,0.00,WUHU216HW,2013-02-19 19:58:00,
2013-02-19 11:59:00,50.9,34.8,29.64,NNW,338,7.2,7.6,54,0.00,,,0.00,WUHU216HW,2013-02-19 19:59:00,
2013-02-19 12:01:00,50.6,34.0,29.65,NNE,23,6.5,7.6,53,0.00,,,0.00,WUHU216HW,2013-02-19 20:01:00,
2013-02-19 12:02:00,50.2,33.8,29.64,North,0,1.8,7.6,53,0.00,,,0.00,WUHU216HW,2013-02-19 20:02:00,
2013-02-19 12:03:00,50.0,34.0,29.65,NNE,23,8.1,8.1,54,0.00,,,0.00,WUHU216HW,2013-02-19 20:03:00,
2013-02-19 12:04:00,49.5,33.9,29.64,North,0,5.1,8.1,55,0.00,,,0.00,WUHU216HW,2013-02-19 20:04:00,
2013-02-19 12:06:00,49.3,34.2,29.65,NNE,23,8.1,8.1,56,0.00,,,0.00,WUHU216HW,2013-02-19 20:06:00,
2013-02-19 12:07:00,49.3,34.2,29.65,NNE,23,6.5,8.1,56,0.00,,,0.00,WUHU216HW,2013-02-19 20:07:00,
2013-02-19 12:08:00,49.1,34.6,29.65,North,0,1.8,8.1,57,0.00,,,0.00,WUHU216HW,2013-02-19 20:08:00,
2013-02-19 12:09:00,49.3,34.8,29.64,NNE,23,0.9,8.1,57,0.00,,,0.00,WUHU216HW,2013-02-19 20:09:00,
2013-02-19 12:11:00,49.3,34.8,29.65,NNW,338,4.0,8.1,57,0.00,,,0.00,WUHU216HW,2013-02-19 20:11:00,
2013-02-19 12:12:00,49.3,33.8,29.65,NNW,338,2.5,8.1,55,0.00,,,0.00,WUHU216HW,2013-02-19 20:12:00,
2013-02-19 12:13:00,49.3,33.8,29.65,NNE,23,2.2,8.1,55,0.00,,,0.00,WUHU216HW,2013-02-19 20:13:00,
2013-02-19 12:14:00,49.3,33.8,29.64,SSW,203,1.1,8.1,55,0.00,,,0.00,WUHU216HW,2013-02-19 20:14:00,
2013-02-19 12:16:00,49.7,34.6,29.64,WNW,293,3.4,6.5,56,0.00,,,0.00,WUHU216HW,2013-02-19 20:16:00,
2013-02-19 12:17:00,50.0,35.8,29.64,WSW,248,3.1,4.0,58,0.00,,,0.00,WUHU216HW,2013-02-19 20:17:00,
2013-02-19 12:18:00,50.0,35.4,29.64,NW,315,2.9,4.0,57,0.00,,,0.00,WUHU216HW,2013-02-19 20:18:00,
2013-02-19 12:19:00,50.2,34.7,29.64,WNW,293,4.5,4.5,55,0.00,,,0.00,WUHU216HW,2013-02-19 20:19:00,
2013-02-19 12:21:00,50.2,35.1,29.64,NNW,338,4.5,4.5,56,0.00,,,0.00,WUHU216HW,2013-02-19 20:21:00,
2013-02-19 12:22:00,50.2,35.1,29.64,NNE,23,7.8,7.8,56,0.00,,,0.00,WUHU216HW,2013-02-19 20:22:00,
2013-02-19 12:23:00,50.2,33.3,29.65,North,0,5.1,7.8,52,0.00,,,0.00,WUHU216HW,2013-02-19 20:23:00,
2013-02-19 12:24:00,50.4,34.4,29.65,North,0,4.0,7.8,54,0.00,,,0.00,WUHU216HW,2013-02-19 20:24:00,
2013-02-19 12:25:00,50.4,33.9,29.65,East,90,1.6,7.8,53,0.00,,,0.00,WUHU216HW,2013-02-19 20:25:00,
2013-02-19 12:27:00,50.4,33.5,29.65,ENE,68,4.5,7.8,52,0.00,,,0.00,WUHU216HW,2013-02-19 20:27:00,
2013-02-19 12:28:00,50.4,34.4,29.65,North,0,1.3,7.8,54,0.00,,,0.00,WUHU216HW,2013-02-19 20:28:00,
2013-02-19 12:29:00,50.4,34.8,29.65,North,0,1.3,7.8,55,0.00,,,0.00,WUHU216HW,2013-02-19 20:29:00,
2013-02-19 12:30:00,50.6,34.9,29.65,NW,315,6.0,7.8,55,0.00,,,0.00,WUHU216HW,2013-02-19 20:30:00,
2013-02-19 12:32:00,50.8,34.2,29.65,NNE,23,2.5,6.0,53,0.00,,,0.00,WUHU216HW,2013-02-19 20:32:00,
2013-02-19 12:33:00,50.8,34.7,29.65,WNW,293,1.8,6.0,54,0.00,,,0.00,WUHU216HW,2013-02-19 20:33:00,
2013-02-19 12:34:00,50.9,33.9,29.65,West,270,2.5,6.0,52,0.00,,,0.00,WUHU216HW,2013-02-19 20:34:00,
2013-02-19 12:35:00,50.9,35.3,29.65,NW,315,6.5,6.5,55,0.00,,,0.00,WUHU216HW,2013-02-19 20:35:00,
2013-02-19 12:37:00,51.1,34.1,29.65,NW,315,2.0,6.5,52,0.00,,,0.00,WUHU216HW,2013-02-19 20:37:00,
2013-02-19 12:38:00,51.3,35.7,29.65,West,270,2.7,6.5,55,0.00,,,0.00,WUHU216HW,2013-02-19 20:38:00,
2013-02-19 12:39:00,51.5,35.7,29.65,West,270,2.5,6.5,55,0.00,,,0.00,WUHU216HW,2013-02-19 20:39:00,
2013-02-19 12:40:00,51.7,35.5,29.65,NW,315,3.4,6.5,54,0.00,,,0.00,WUHU216HW,2013-02-19 20:40:00,
2013-02-19 12:42:00,51.8,34.3,29.65,NW,315,2.5,6.5,51,0.00,,,0.00,WUHU216HW,2013-02-19 20:42:00,
2013-02-19 12:43:00,52.0,35.4,29.65,WNW,293,0.9,6.5,53,0.00,,,0.00,WUHU216HW,2013-02-19 20:43:00,
2013-02-19 12:44:00,52.0,35.4,29.65,NNE,23,2.7,6.5,53,0.00,,,0.00,WUHU216HW,2013-02-19 20:44:00,
2013-02-19 12:45:00,52.2,34.2,29.65,NNW,338,1.8,3.8,50,0.00,,,0.00,WUHU216HW,2013-02-19 20:45:00,
2013-02-19 12:47:00,52.2,35.6,29.65,NW,315,3.8,3.8,53,0.00,,,0.00,WUHU216HW,2013-02-19 20:47:00,
2013-02-19 12:48:00,52.2,35.1,29.65,NW,315,4.9,4.9,52,0.00,,,0.00,WUHU216HW,2013-02-19 20:48:00,
2013-02-19 12:49:00,52.2,35.1,29.65,NNW,338,3.4,4.9,52,0.00,,,0.00,WUHU216HW,2013-02-19 20:49:00,
2013-02-19 12:50:00,52.2,33.6,29.65,NNE,23,3.6,4.9,49,0.00,,,0.00,WUHU216HW,2013-02-19 20:50:00,
2013-02-19 12:52:00,52.2,33.0,29.65,NNW,338,3.4,4.9,48,0.00,,,0.00,WUHU216HW,2013-02-19 20:52:00,
2013-02-19 12:53:00,52.2,34.2,29.65,WNW,293,9.8,9.8,50,0.00,,,0.00,WUHU216HW,2013-02-19 20:53:00,
2013-02-19 12:54:00,52.4,34.3,29.65,West,270,4.3,9.8,50,0.00,,,0.00,WUHU216HW,2013-02-19 20:54:00,
2013-02-19 12:55:00,52.6,34.9,29.65,NNW,338,6.3,9.8,51,0.00,,,0.00,WUHU216HW,2013-02-19 20:55:00,
2013-02-19 12:57:00,52.7,34.7,29.65,North,0,1.1,9.8,50,0.00,,,0.00,WUHU216HW,2013-02-19 20:57:00,
2013-02-19 12:58:00,52.9,35.7,29.65,WNW,293,6.9,9.8,52,0.00,,,0.00,WUHU216HW,2013-02-19 20:58:00,
2013-02-19 12:59:00,53.1,35.0,29.65,North,0,6.9,9.8,50,0.00,,,0.00,WUHU216HW,2013-02-19 20:59:00,
2013-02-19 13:02:00,52.6,32.2,29.65,North,0,7.6,12.8,46,0.00,,,0.00,WUHU216HW,2013-02-19 21:02:00,
2013-02-19 13:03:00,52.2,32.5,29.65,NW,315,6.9,12.8,47,0.00,,,0.00,WUHU216HW,2013-02-19 21:03:00,
2013-02-19 13:04:00,52.0,31.8,29.65,NNW,338,6.9,12.8,46,0.00,,,0.00,WUHU216HW,2013-02-19 21:04:00,
2013-02-19 13:05:00,51.8,33.3,29.65,NNW,338,2.5,12.8,49,0.00,,,0.00,WUHU216HW,2013-02-19 21:05:00,
2013-02-19 13:07:00,51.8,33.3,29.65,NNW,338,4.9,12.8,49,0.00,,,0.00,WUHU216HW,2013-02-19 21:07:00,
2013-02-19 13:08:00,51.8,33.3,29.65,NW,315,6.3,12.8,49,0.00,,,0.00,WUHU216HW,2013-02-19 21:08:00,
2013-02-19 13:09:00,51.7,33.1,29.65,NNW,338,6.0,12.8,49,0.00,,,0.00,WUHU216HW,2013-02-19 21:09:00,
2013-02-19 13:10:00,51.5,32.4,29.65,NNW,338,8.7,12.8,48,0.00,,,0.00,WUHU216HW,2013-02-19 21:10:00,
2013-02-19 13:12:00,51.5,33.5,29.65,NNW,338,8.5,8.7,50,0.00,,,0.00,WUHU216HW,2013-02-19 21:12:00,
2013-02-19 13:13:00,51.5,33.5,29.66,North,0,4.0,8.7,50,0.00,,,0.00,WUHU216HW,2013-02-19 21:13:00,
2013-02-19 13:14:00,51.5,32.9,29.66,NNW,338,3.8,8.7,49,0.00,,,0.00,WUHU216HW,2013-02-19 21:14:00,
2013-02-19 13:15:00,51.5,33.5,29.65,NNE,23,5.6,8.7,50,0.00,,,0.00,WUHU216HW,2013-02-19 21:15:00,
2013-02-19 13:17:00,51.5,33.5,29.66,NW,315,5.8,8.7,50,0.00,,,0.00,WUHU216HW,2013-02-19 21:17:00,
2013-02-19 13:18:00,51.3,32.8,29.66,NW,315,6.7,8.7,49,0.00,,,0.00,WUHU216HW,2013-02-19 21:18:00,
2013-02-19 13:19:00,51.3,33.4,29.66,NNW,338,8.3,8.7,50,0.00,,,0.00,WUHU216HW,2013-02-19 21:19:00,
2013-02-19 13:20:00,51.1,32.7,29.66,NNW,338,4.5,8.5,49,0.00,,,0.00,WUHU216HW,2013-02-19 21:20:00,
2013-02-19 13:22:00,51.1,33.7,29.66,NNW,338,5.1,8.3,51,0.00,,,0.00,WUHU216HW,2013-02-19 21:22:00,
2013-02-19 13:23:00,51.1,33.7,29.66,NW,315,3.6,8.3,51,0.00,,,0.00,WUHU216HW,2013-02-19 21:23:00,
2013-02-19 13:24:00,51.3,32.8,29.66,ENE,68,2.5,8.3,49,0.00,,,0.00,WUHU216HW,2013-02-19 21:24:00,
2013-02-19 13:25:00,51.5,34.4,29.66,WNW,293,2.5,8.3,52,0.00,,,0.00,WUHU216HW,2013-02-19 21:25:00,
2013-02-19 13:27:00,52.2,35.1,29.66,NNE,23,6.7,8.3,52,0.00,,,0.00,WUHU216HW,2013-02-19 21:27:00,
2013-02-19 13:28:00,52.2,33.6,29.66,NNE,23,6.3,8.3,49,0.00,,,0.00,WUHU216HW,2013-02-19 21:28:00,
2013-02-19 13:29:00,52.2,34.7,29.66,NNW,338,6.0,6.7,51,0.00,,,0.00,WUHU216HW,2013-02-19 21:29:00,
2013-02-19 13:30:00,52.2,33.6,29.66,NW,315,7.6,7.6,49,0.00,,,0.00,WUHU216HW,2013-02-19 21:30:00,
2013-02-19 13:31:00,52.0,34.0,29.66,WNW,293,10.5,10.5,50,0.00,,,0.00,WUHU216HW,2013-02-19 21:31:00,
2013-02-19 13:33:00,51.5,34.4,29.66,NNW,338,3.1,10.5,52,0.00,,,0.00,WUHU216HW,2013-02-19 21:33:00,
2013-02-19 13:34:00,51.5,34.4,29.66,NW,315,4.3,10.5,52,0.00,,,0.00,WUHU216HW,2013-02-19 21:34:00,
2013-02-19 13:35:00,51.5,34.4,29.66,North,0,7.4,10.5,52,0.00,,,0.00,WUHU216HW,2013-02-19 21:35:00,
2013-02-19 13:36:00,51.5,34.4,29.66,North,0,4.0,10.5,52,0.00,,,0.00,WUHU216HW,2013-02-19 21:36:00,
2013-02-19 13:38:00,51.8,35.2,29.66,NW,315,4.5,10.5,53,0.00,,,0.00,WUHU216HW,2013-02-19 21:38:00,
2013-02-19 13:39:00,52.2,35.1,29.66,NW,315,6.5,10.5,52,0.00,,,0.00,WUHU216HW,2013-02-19 21:39:00,
2013-02-19 13:40:00,52.4,35.3,29.66,NW,315,8.5,10.5,52,0.00,,,0.00,WUHU216HW,2013-02-19 21:40:00,
2013-02-19 13:41:00,52.4,34.3,29.66,NW,315,6.3,8.5,50,0.00,,,0.00,WUHU216HW,2013-02-19 21:41:00,
2013-02-19 13:43:00,52.2,34.2,29.66,NW,315,4.9,8.5,50,0.00,,,0.00,WUHU216HW,2013-02-19 21:43:00,
2013-02-19 13:44:00,52.2,34.7,29.66,WNW,293,6.9,8.5,51,0.00,,,0.00,WUHU216HW,2013-02-19 21:44:00,
2013-02-19 13:45:00,51.8,34.3,29.66,NW,315,6.9,8.5,51,0.00,,,0.00,WUHU216HW,2013-02-19 21:45:00,
2013-02-19 13:46:00,51.7,34.1,29.66,WNW,293,6.7,8.5,51,0.00,,,0.00,WUHU216HW,2013-02-19 21:46:00,
2013-02-19 13:48:00,51.7,34.6,29.66,WNW,293,5.4,8.5,52,0.00,,,0.00,WUHU216HW,2013-02-19 21:48:00,
2013-02-19 13:49:00,51.8,34.3,29.66,NW,315,9.8,9.8,51,0.00,,,0.00,WUHU216HW,2013-02-19 21:49:00,
2013-02-19 13:50:00,51.7,34.6,29.66,NW,315,3.4,9.8,52,0.00,,,0.00,WUHU216HW,2013-02-19 21:50:00,
2013-02-19 13:51:00,51.5,34.8,29.66,North,0,5.4,9.8,53,0.00,,,0.00,WUHU216HW,2013-02-19 21:51:00,
2013-02-19 13:53:00,51.1,34.6,29.66,NW,315,7.6,9.8,53,0.00,,,0.00,WUHU216HW,2013-02-19 21:53:00,
2013-02-19 13:54:00,50.9,34.4,29.66,NNW,338,7.2,9.8,53,0.00,,,0.00,WUHU216HW,2013-02-19 21:54:00,
2013-02-19 13:55:00,50.8,34.2,29.66,North,0,7.6,9.8,53,0.00,,,0.00,WUHU216HW,2013-02-19 21:55:00,
2013-02-19 13:56:00,50.8,33.8,29.66,North,0,4.0,9.8,52,0.00,,,0.00,WUHU216HW,2013-02-19 21:56:00,
2013-02-19 13:57:00,50.8,34.7,29.66,NNW,338,8.3,9.8,54,0.00,,,0.00,WUHU216HW,2013-02-19 21:57:00,
2013-02-19 13:59:00,50.6,34.5,29.66,NW,315,3.4,8.3,54,0.00,,,0.00,WUHU216HW,2013-02-19 21:59:00,
2013-02-19 14:00:00,50.8,34.2,29.66,NE,45,6.7,8.3,53,0.00,,,0.00,WUHU216HW,2013-02-19 22:00:00,
2013-02-19 14:01:00,50.6,33.6,29.66,NW,315,5.1,8.3,52,0.00,,,0.00,WUHU216HW,2013-02-19 22:01:00,
2013-02-19 14:03:00,50.8,34.2,29.66,NW,315,3.4,8.3,53,0.00,,,0.00,WUHU216HW,2013-02-19 22:03:00,
2013-02-19 14:04:00,50.8,34.7,29.66,NNW,338,6.9,8.3,54,0.00,,,0.00,WUHU216HW,2013-02-19 22:04:00,
2013-02-19 14:05:00,50.9,34.8,29.66,NNW,338,5.1,8.3,54,0.00,,,0.00,WUHU216HW,2013-02-19 22:05:00,
2013-02-19 14:06:00,51.1,34.6,29.66,NNW,338,2.5,8.3,53,0.00,,,0.00,WUHU216HW,2013-02-19 22:06:00,
2013-02-19 14:08:00,51.3,33.9,29.66,NW,315,5.4,7.6,51,0.00,,,0.00,WUHU216HW,2013-02-19 22:08:00,
2013-02-19 14:09:00,51.5,34.4,29.66,North,0,4.7,7.6,52,0.00,,,0.00,WUHU216HW,2013-02-19 22:09:00,
2013-02-19 14:10:00,51.5,34.4,29.66,NNE,23,2.2,7.6,52,0.00,,,0.00,WUHU216HW,2013-02-19 22:10:00,
2013-02-19 14:11:00,51.7,34.6,29.66,NNW,338,5.4,7.6,52,0.00,,,0.00,WUHU216HW,2013-02-19 22:11:00,
2013-02-19 14:12:00,51.8,34.7,29.66,NNW,338,7.8,7.8,52,0.00,,,0.00,WUHU216HW,2013-02-19 22:12:00,
2013-02-19 14:14:00,51.7,34.6,29.66,NW,315,2.7,7.8,52,0.00,,,0.00,WUHU216HW,2013-02-19 22:14:00,
2013-02-19 14:15:00,51.8,34.7,29.66,NW,315,6.9,7.8,52,0.00,,,0.00,WUHU216HW,2013-02-19 22:15:00,
2013-02-19 14:16:00,52.0,34.9,29.66,NNW,338,6.3,7.8,52,0.00,,,0.00,WUHU216HW,2013-02-19 22:16:00,
2013-02-19 14:17:00,52.2,35.1,29.66,NNE,23,8.5,8.5,52,0.00,,,0.00,WUHU216HW,2013-02-19 22:17:00,
2013-02-19 14:19:00,52.2,34.7,29.67,NW,315,4.0,8.5,51,0.00,,,0.00,WUHU216HW,2013-02-19 22:19:00,
2013-02-19 14:20:00,52.2,35.1,29.66,WNW,293,4.7,8.5,52,0.00,,,0.00,WUHU216HW,2013-02-19 22:20:00,
2013-02-19 14:21:00,52.2,34.2,29.66,NNW,338,3.4,8.5,50,0.00,,,0.00,WUHU216HW,2013-02-19 22:21:00,
2013-02-19 14:22:00,52.2,34.7,29.66,NNE,23,3.4,8.5,51,0.00,,,0.00,WUHU216HW,2013-02-19 22:22:00,
2013-02-19 14:24:00,51.8,34.3,29.67,NNW,338,4.0,8.5,51,0.00,,,0.00,WUHU216HW,2013-02-19 22:24:00,
2013-02-19 14:25:00,51.8,34.3,29.67,NNW,338,8.3,8.5,51,0.00,,,0.00,WUHU216HW,2013-02-19 22:25:00,
2013-02-19 14:26:00,51.8,34.7,29.67,NW,315,8.7,8.7,52,0.00,,,0.00,WUHU216HW,2013-02-19 22:26:00,
2013-02-19 14:27:00,51.8,34.3,29.67,NW,315,9.2,9.2,51,0.00,,,0.00,WUHU216HW,2013-02-19 22:27:00,
2013-02-19 14:28:00,52.2,35.6,29.67,WNW,293,6.5,9.2,53,0.00,,,0.00,WUHU216HW,2013-02-19 22:28:00,
2013-02-19 14:30:00,52.4,35.3,29.67,NW,315,4.3,9.2,52,0.00,,,0.00,WUHU216HW,2013-02-19 22:30:00,
2013-02-19 14:31:00,52.4,35.3,29.67,North,0,8.9,9.2,52,0.00,,,0.00,WUHU216HW,2013-02-19 22:31:00,
2013-02-19 14:32:00,52.4,34.7,29.67,NW,315,8.5,9.2,51,0.00,,,0.00,WUHU216HW,2013-02-19 22:32:00,
2013-02-19 14:33:00,52.2,35.1,29.67,NNE,23,5.4,9.2,52,0.00,,,0.00,WUHU216HW,2013-02-19 22:33:00,
2013-02-19 14:35:00,51.5,34.4,29.67,NNW,338,9.2,9.2,52,0.00,,,0.00,WUHU216HW,2013-02-19 22:35:00,
2013-02-19 14:36:00,51.3,34.8,29.67,NW,315,5.8,9.2,53,0.00,,,0.00,WUHU216HW,2013-02-19 22:36:00,
2013-02-19 14:37:00,51.1,35.0,29.67,NNW,338,6.3,9.2,54,0.00,,,0.00,WUHU216HW,2013-02-19 22:37:00,
2013-02-19 14:38:00,50.8,34.2,29.67,NNW,338,4.9,9.2,53,0.00,,,0.00,WUHU216HW,2013-02-19 22:38:00,
2013-02-19 14:40:00,50.6,34.5,29.67,NNE,23,6.5,9.2,54,0.00,,,0.00,WUHU216HW,2013-02-19 22:40:00,
2013-02-19 14:41:00,50.4,34.8,29.67,NW,315,4.0,9.2,55,0.00,,,0.00,WUHU216HW,2013-02-19 22:41:00,
2013-02-19 14:42:00,50.2,34.7,29.68,North,0,6.9,9.2,55,0.00,,,0.00,WUHU216HW,2013-02-19 22:42:00,
2013-02-19 14:43:00,50.0,34.9,29.67,NNE,23,4.0,9.2,56,0.00,,,0.00,WUHU216HW,2013-02-19 22:43:00,
2013-02-19 14:45:00,49.7,34.6,29.67,NW,315,3.8,6.9,56,0.00,,,0.00,WUHU216HW,2013-02-19 22:45:00,
2013-02-19 14:46:00,49.7,34.6,29.67,North,0,6.9,6.9,56,0.00,,,0.00,WUHU216HW,2013-02-19 22:46:00,
2013-02-19 14:47:00,49.7,34.6,29.67,NNW,338,6.9,6.9,56,0.00,,,0.00,WUHU216HW,2013-02-19 22:47:00,
2013-02-19 14:48:00,49.5,34.8,29.67,NNW,338,3.8,6.9,57,0.00,,,0.00,WUHU216HW,2013-02-19 22:48:00,
2013-02-19 14:49:00,49.3,34.2,29.67,NNW,338,5.4,6.9,56,0.00,,,0.00,WUHU216HW,2013-02-19 22:49:00,
2013-02-19 14:51:00,49.3,34.8,29.67,South,180,2.5,6.9,57,0.00,,,0.00,WUHU216HW,2013-02-19 22:51:00,
2013-02-19 14:52:00,49.3,34.2,29.67,NNW,338,3.8,6.9,56,0.00,,,0.00,WUHU216HW,2013-02-19 22:52:00,
2013-02-19 14:53:00,49.3,34.8,29.67,North,0,7.6,7.6,57,0.00,,,0.00,WUHU216HW,2013-02-19 22:53:00,
2013-02-19 14:54:00,49.3,34.8,29.67,NNE,23,3.4,7.6,57,0.00,,,0.00,WUHU216HW,2013-02-19 22:54:00,
2013-02-19 14:56:00,49.3,34.8,29.67,North,0,4.7,7.6,57,0.00,,,0.00,WUHU216HW,2013-02-19 22:56:00,
2013-02-19 14:57:00,49.3,35.2,29.67,NW,315,3.1,7.6,58,0.00,,,0.00,WUHU216HW,2013-02-19 22:57:00,
2013-02-19 14:58:00,49.3,35.2,29.67,NNW,338,2.7,7.6,58,0.00,,,0.00,WUHU216HW,2013-02-19 22:58:00,
2013-02-19 15:00:00,49.3,34.8,29.67,NNW,338,4.0,7.6,57,0.00,,,0.00,WUHU216HW,2013-02-19 23:00:00,
2013-02-19 15:01:00,49.1,35.0,29.67,North,0,5.6,7.6,58,0.00,,,0.00,WUHU216HW,2013-02-19 23:01:00,
2013-02-19 15:02:00,49.1,34.6,29.67,NNW,338,2.7,7.6,57,0.00,,,0.00,WUHU216HW,2013-02-19 23:02:00,
2013-02-19 15:04:00,49.1,35.5,29.67,NW,315,6.3,6.3,59,0.00,,,0.00,WUHU216HW,2013-02-19 23:04:00,
2013-02-19 15:05:00,49.1,35.0,29.67,NNW,338,3.8,6.3,58,0.00,,,0.00,WUHU216HW,2013-02-19 23:05:00,
2013-02-19 15:06:00,49.1,35.0,29.68,North,0,3.8,6.3,58,0.00,,,0.00,WUHU216HW,2013-02-19 23:06:00,
2013-02-19 15:07:00,49.0,33.9,29.68,NNE,23,7.6,7.6,56,0.00,,,0.00,WUHU216HW,2013-02-19 23:07:00,
2013-02-19 15:09:00,48.8,34.7,29.67,NW,315,2.7,7.6,58,0.00,,,0.00,WUHU216HW,2013-02-19 23:09:00,
2013-02-19 15:10:00,48.8,35.1,29.68,NW,315,4.3,7.6,59,0.00,,,0.00,WUHU216HW,2013-02-19 23:10:00,
2013-02-19 15:11:00,48.8,35.1,29.68,North,0,5.8,7.6,59,0.00,,,0.00,WUHU216HW,2013-02-19 23:11:00,
2013-02-19 15:12:00,48.8,35.1,29.68,NW,315,3.4,7.6,59,0.00,,,0.00,WUHU216HW,2013-02-19 23:12:00,
2013-02-19 15:13:00,48.8,35.1,29.68,NNW,338,3.1,7.6,59,0.00,,,0.00,WUHU216HW,2013-02-19 23:13:00,
2013-02-19 15:15:00,49.0,35.3,29.68,NNW,338,3.8,7.6,59,0.00,,,0.00,WUHU216HW,2013-02-19 23:15:00,
2013-02-19 15:16:00,49.3,36.1,29.68,NE,45,2.9,7.6,60,0.00,,,0.00,WUHU216HW,2013-02-19 23:16:00,
2013-02-19 15:17:00,49.3,35.7,29.68,North,0,7.8,7.8,59,0.00,,,0.00,WUHU216HW,2013-02-19 23:17:00,
2013-02-19 15:18:00,49.3,34.2,29.68,North,0,6.9,7.8,56,0.00,,,0.00,WUHU216HW,2013-02-19 23:18:00,
2013-02-19 15:20:00,49.3,34.2,29.68,NW,315,6.9,7.8,56,0.00,,,0.00,WUHU216HW,2013-02-19 23:20:00,
2013-02-19 15:21:00,49.1,34.1,29.68,NNE,23,3.8,7.8,56,0.00,,,0.00,WUHU216HW,2013-02-19 23:21:00,
2013-02-19 15:22:00,49.0,34.4,29.68,NNE,23,7.2,7.8,57,0.00,,,0.00,WUHU216HW,2013-02-19 23:22:00,
2013-02-19 15:23:00,49.0,34.4,29.68,NNW,338,5.4,7.8,57,0.00,,,0.00,WUHU216HW,2013-02-19 23:23:00,
2013-02-19 15:25:00,48.8,33.8,29.68,North,0,4.0,7.8,56,0.00,,,0.00,WUHU216HW,2013-02-19 23:25:00,
2013-02-19 15:26:00,48.8,34.7,29.68,WNW,293,6.0,7.8,58,0.00,,,0.00,WUHU216HW,2013-02-19 23:26:00,
2013-02-19 15:27:00,48.6,34.0,29.68,NNW,338,0.4,7.2,57,0.00,,,0.00,WUHU216HW,2013-02-19 23:27:00,
2013-02-19 15:28:00,48.6,34.0,29.68,NW,315,6.0,7.2,57,0.00,,,0.00,WUHU216HW,2013-02-19 23:28:00,
2013-02-19 15:29:00,48.6,34.0,29.68,NW,315,2.2,7.2,57,0.00,,,0.00,WUHU216HW,2013-02-19 23:29:00,
2013-02-19 15:31:00,48.6,34.5,29.68,North,0,4.9,7.2,58,0.00,,,0.00,WUHU216HW,2013-02-19 23:31:00,
2013-02-19 15:32:00,48.6,34.5,29.68,North,0,4.9,6.0,58,0.00,,,0.00,WUHU216HW,2013-02-19 23:32:00,
2013-02-19 15:33:00,48.6,33.6,29.68,North,0,5.1,6.0,56,0.00,,,0.00,WUHU216HW,2013-02-19 23:33:00,
2013-02-19 15:34:00,48.4,33.8,29.68,NW,315,2.0,6.0,57,0.00,,,0.00,WUHU216HW,2013-02-19 23:34:00,
2013-02-19 15:36:00,48.4,34.3,29.68,NW,315,4.0,8.1,58,0.00,,,0.00,WUHU216HW,2013-02-19 23:36:00,
2013-02-19 15:37:00,48.4,33.8,29.68,North,0,4.7,8.1,57,0.00,,,0.00,WUHU216HW,2013-02-19 23:37:00,
2013-02-19 15:38:00,48.4,34.3,29.68,North,0,1.8,8.1,58,0.00,,,0.00,WUHU216HW,2013-02-19 23:38:00,
2013-02-19 15:39:00,48.2,34.2,29.68,North,0,4.3,8.1,58,0.00,,,0.00,WUHU216HW,2013-02-19 23:39:00,
2013-02-19 15:41:00,48.2,34.2,29.68,North,0,2.5,8.1,58,0.00,,,0.00,WUHU216HW,2013-02-19 23:41:00,
2013-02-19 15:42:00,48.1,34.0,29.68,North,0,2.2,8.1,58,0.00,,,0.00,WUHU216HW,2013-02-19 23:42:00,
2013-02-19 15:43:00,48.1,34.0,29.69,NW,315,1.3,8.1,58,0.00,,,0.00,WUHU216HW,2013-02-19 23:43:00,
2013-02-19 15:44:00,48.1,34.5,29.68,NW,315,2.5,8.1,59,0.00,,,0.00,WUHU216HW,2013-02-19 23:44:00,
2013-02-19 15:45:00,48.1,34.0,29.69,North,0,5.1,5.1,58,0.00,,,0.00,WUHU216HW,2013-02-19 23:45:00,
2013-02-19 15:47:00,47.9,33.9,29.69,North,0,5.4,5.4,58,0.00,,,0.00,WUHU216HW,2013-02-19 23:47:00,
2013-02-19 15:48:00,47.9,33.9,29.69,NNW,338,4.5,5.4,58,0.00,,,0.00,WUHU216HW,2013-02-19 23:48:00,
2013-02-19 15:49:00,47.7,33.7,29.69,NNW,338,4.5,5.4,58,0.00,,,0.00,WUHU216HW,2013-02-19 23:49:00,
2013-02-19 15:50:00,47.7,33.7,29.69,NNW,338,3.4,5.4,58,0.00,,,0.00,WUHU216HW,2013-02-19 23:50:00,
2013-02-19 15:52:00,47.5,33.0,29.69,NNW,338,4.0,6.9,57,0.00,,,0.00,WUHU216HW,2013-02-19 23:52:00,
2013-02-19 15:53:00,47.5,33.5,29.69,WSW,248,3.1,6.9,58,0.00,,,0.00,WUHU216HW,2013-02-19 23:53:00,
2013-02-19 15:54:00,47.5,33.5,29.69,NW,315,5.4,6.9,58,0.00,,,0.00,WUHU216HW,2013-02-19 23:54:00,
2013-02-19 15:55:00,47.5,33.5,29.69,NW,315,2.7,6.9,58,0.00,,,0.00,WUHU216HW,2013-02-19 23:55:00,
2013-02-19 15:57:00,48.1,34.0,29.69,North,0,2.5,6.9,58,0.00,,,0.00,WUHU216HW,2013-02-19 23:57:00,
2013-02-19 15:58:00,48.2,34.2,29.69,North,0,2.7,6.9,58,0.00,,,0.00,WUHU216HW,2013-02-19 23:58:00,
2013-02-19 16:00:00,48.4,33.8,29.69,NW,315,2.5,6.9,57,0.00,,,0.00,WUHU216HW,2013-02-20 00:00:00,
2013-02-19 16:01:00,48.4,33.8,29.69,NW,315,2.0,6.9,57,0.00,,,0.00,WUHU216HW,2013-02-20 00:01:00,
2013-02-19 16:02:00,48.4,33.8,29.69,NNW,338,2.5,5.4,57,0.00,,,0.00,WUHU216HW,2013-02-20 00:02:00,
2013-02-19 16:03:00,48.6,34.5,29.69,NNW,338,4.0,5.4,58,0.00,,,0.00,WUHU216HW,2013-02-20 00:03:00,
2013-02-19 16:05:00,48.6,34.0,29.69,NNE,23,3.1,4.0,57,0.00,,,0.00,WUHU216HW,2013-02-20 00:05:00,
2013-02-19 16:06:00,48.6,34.5,29.69,NW,315,6.0,6.0,58,0.00,,,0.00,WUHU216HW,2013-02-20 00:06:00,
2013-02-19 16:07:00,48.8,34.7,29.69,NNW,338,5.6,6.0,58,0.00,,,0.00,WUHU216HW,2013-02-20 00:07:00,
2013-02-19 16:08:00,49.0,34.8,29.69,NW,315,5.8,6.0,58,0.00,,,0.00,WUHU216HW,2013-02-20 00:08:00,
2013-02-19 16:10:00,49.0,34.4,29.69,NNW,338,5.4,6.0,57,0.00,,,0.00,WUHU216HW,2013-02-20 00:10:00,
2013-02-19 16:11:00,49.0,34.4,29.69,North,0,3.6,6.0,57,0.00,,,0.00,WUHU216HW,2013-02-20 00:11:00,
2013-02-19 16:12:00,49.0,34.4,29.69,NNW,338,4.3,6.0,57,0.00,,,0.00,WUHU216HW,2013-02-20 00:12:00,
2013-02-19 16:13:00,49.0,34.8,29.69,NNE,23,4.3,6.0,58,0.00,,,0.00,WUHU216HW,2013-02-20 00:13:00,
2013-02-19 16:15:00,48.6,34.5,29.69,NNE,23,1.6,6.0,58,0.00,,,0.00,WUHU216HW,2013-02-20 00:15:00,
2013-02-19 16:16:00,48.6,34.5,29.69,North,0,7.6,7.6,58,0.00,,,0.00,WUHU216HW,2013-02-20 00:16:00,
2013-02-19 16:17:00,48.6,34.5,29.69,NNW,338,6.9,7.6,58,0.00,,,0.00,WUHU216HW,2013-02-20 00:17:00,
2013-02-19 16:18:00,48.6,34.5,29.69,North,0,5.6,7.6,58,0.00,,,0.00,WUHU216HW,2013-02-20 00:18:00,
2013-02-19 16:19:00,48.4,34.3,29.69,NNW,338,8.9,8.9,58,0.00,,,0.00,WUHU216HW,2013-02-20 00:19:00,
2013-02-19 16:21:00,48.4,34.3,29.69,North,0,2.5,8.9,58,0.00,,,0.00,WUHU216HW,2013-02-20 00:21:00,
2013-02-19 16:22:00,48.4,34.3,29.69,NNW,338,2.7,8.9,58,0.00,,,0.00,WUHU216HW,2013-02-20 00:22:00,
2013-02-19 16:23:00,48.4,34.8,29.69,NNW,338,6.3,8.9,59,0.00,,,0.00,WUHU216HW,2013-02-20 00:23:00,
2013-02-19 16:24:00,48.2,34.2,29.69,NNE,23,3.8,8.9,58,0.00,,,0.00,WUHU216HW,2013-02-20 00:24:00,
2013-02-19 16:26:00,48.2,34.2,29.69,NNE,23,3.4,8.9,58,0.00,,,0.00,WUHU216HW,2013-02-20 00:26:00,
2013-02-19 16:27:00,48.2,34.2,29.69,NW,315,4.0,8.9,58,0.00,,,0.00,WUHU216HW,2013-02-20 00:27:00,
2013-02-19 16:28:00,48.1,34.0,29.69,North,0,7.6,8.9,58,0.00,,,0.00,WUHU216HW,2013-02-20 00:28:00,
2013-02-19 16:29:00,48.1,34.5,29.69,NNW,338,3.8,7.6,59,0.00,,,0.00,WUHU216HW,2013-02-20 00:29:00,
2013-02-19 16:31:00,48.1,34.0,29.69,North,0,6.5,7.6,58,0.00,,,0.00,WUHU216HW,2013-02-20 00:31:00,
2013-02-19 16:32:00,48.1,34.0,29.69,North,0,4.7,7.6,58,0.00,,,0.00,WUHU216HW,2013-02-20 00:32:00,
2013-02-19 16:33:00,48.1,34.0,29.69,NNW,338,8.7,8.7,58,0.00,,,0.00,WUHU216HW,2013-02-20 00:33:00,
2013-02-19 16:34:00,48.1,34.0,29.69,NNW,338,3.4,8.7,58,0.00,,,0.00,WUHU216HW,2013-02-20 00:34:00,
2013-02-19 16:35:00,47.9,33.9,29.69,North,0,8.1,8.7,58,0.00,,,0.00,WUHU216HW,2013-02-20 00:35:00,
2013-02-19 16:37:00,47.9,33.9,29.69,NW,315,6.9,9.4,58,0.00,,,0.00,WUHU216HW,2013-02-20 00:37:00,
2013-02-19 16:38:00,47.9,32.9,29.69,North,0,4.7,9.4,56,0.00,,,0.00,WUHU216HW,2013-02-20 00:38:00,
2013-02-19 16:39:00,47.9,33.4,29.69,NNE,23,6.5,9.4,57,0.00,,,0.00,WUHU216HW,2013-02-20 00:39:00,
2013-02-19 16:40:00,47.9,32.9,29.69,NNW,338,2.7,9.4,56,0.00,,,0.00,WUHU216HW,2013-02-20 00:40:00,
2013-02-19 16:42:00,47.9,33.4,29.69,NW,315,5.4,9.4,57,0.00,,,0.00,WUHU216HW,2013-02-20 00:42:00,
2013-02-19 16:43:00,47.9,33.9,29.69,NW,315,4.7,9.4,58,0.00,,,0.00,WUHU216HW,2013-02-20 00:43:00,
2013-02-19 16:44:00,47.9,33.4,29.69,NNW,338,6.0,9.4,57,0.00,,,0.00,WUHU216HW,2013-02-20 00:44:00,
2013-02-19 16:45:00,47.9,33.9,29.69,NNE,23,3.4,9.4,58,0.00,,,0.00,WUHU216HW,2013-02-20 00:45:00,
2013-02-19 16:47:00,47.7,34.1,29.69,WNW,293,2.5,6.5,59,0.00,,,0.00,WUHU216HW,2013-02-20 00:47:00,
2013-02-19 16:48:00,47.5,33.9,29.69,North,0,4.7,6.5,59,0.00,,,0.00,WUHU216HW,2013-02-20 00:48:00,
2013-02-19 16:49:00,47.7,34.1,29.69,North,0,8.3,8.3,59,0.00,,,0.00,WUHU216HW,2013-02-20 00:49:00,
2013-02-19 16:50:00,47.5,33.9,29.69,North,0,5.4,8.3,59,0.00,,,0.00,WUHU216HW,2013-02-20 00:50:00,
2013-02-19 16:51:00,47.5,34.4,29.69,NNE,23,5.8,8.3,60,0.00,,,0.00,WUHU216HW,2013-02-20 00:51:00,
2013-02-19 16:53:00,47.5,34.4,29.70,NNW,338,2.2,8.3,60,0.00,,,0.00,WUHU216HW,2013-02-20 00:53:00,
2013-02-19 16:54:00,47.3,34.2,29.70,NNE,23,2.5,8.3,60,0.00,,,0.00,WUHU216HW,2013-02-20 00:54:00,
2013-02-19 16:55:00,47.3,34.2,29.70,NE,45,2.2,8.3,60,0.00,,,0.00,WUHU216HW,2013-02-20 00:55:00,
2013-02-19 16:56:00,47.2,34.0,29.70,NNW,338,2.0,8.3,60,0.00,,,0.00,WUHU216HW,2013-02-20 00:56:00,
2013-02-19 16:58:00,47.2,34.4,29.70,NNW,338,3.4,8.3,61,0.00,,,0.00,WUHU216HW,2013-02-20 00:58:00,
2013-02-19 16:59:00,47.2,34.4,29.70,NNE,23,4.3,5.8,61,0.00,,,0.00,WUHU216HW,2013-02-20 00:59:00,
2013-02-19 17:01:00,47.2,34.4,29.70,North,0,2.2,5.8,61,0.00,,,0.00,WUHU216HW,2013-02-20 01:01:00,
2013-02-19 17:02:00,47.0,33.8,29.70,NW,315,2.5,4.3,60,0.00,,,0.00,WUHU216HW,2013-02-20 01:02:00,
2013-02-19 17:03:00,46.8,34.0,29.70,NW,315,1.8,4.3,61,0.00,,,0.00,WUHU216HW,2013-02-20 01:03:00,
2013-02-19 17:04:00,46.8,34.0,29.70,NNW,338,4.3,4.3,61,0.00,,,0.00,WUHU216HW,2013-02-20 01:04:00,
2013-02-19 17:06:00,46.6,33.0,29.70,North,0,6.7,6.7,59,0.00,,,0.00,WUHU216HW,2013-02-20 01:06:00,
2013-02-19 17:07:00,46.6,33.5,29.70,North,0,3.4,6.7,60,0.00,,,0.00,WUHU216HW,2013-02-20 01:07:00,
2013-02-19 17:08:00,46.6,33.5,29.70,North,0,2.5,6.7,60,0.00,,,0.00,WUHU216HW,2013-02-20 01:08:00,
2013-02-19 17:09:00,46.6,33.5,29.70,North,0,1.6,6.7,60,0.00,,,0.00,WUHU216HW,2013-02-20 01:09:00,
2013-02-19 17:11:00,46.4,33.7,29.70,NNE,23,1.3,6.7,61,0.00,,,0.00,WUHU216HW,2013-02-20 01:11:00,
2013-02-19 17:12:00,46.4,33.3,29.70,West,270,1.1,6.7,60,0.00,,,0.00,WUHU216HW,2013-02-20 01:12:00,
2013-02-19 17:13:00,46.3,33.1,29.70,WSW,248,3.1,6.7,60,0.00,,,0.00,WUHU216HW,2013-02-20 01:13:00,
2013-02-19 17:14:00,46.3,33.6,29.70,North,0,1.3,6.7,61,0.00,,,0.00,WUHU216HW,2013-02-20 01:14:00,
2013-02-19 17:16:00,46.1,33.4,29.70,NNW,338,3.6,3.6,61,0.00,,,0.00,WUHU216HW,2013-02-20 01:16:00,
2013-02-19 17:17:00,45.9,33.2,29.70,SW,225,2.5,3.6,61,0.00,,,0.00,WUHU216HW,2013-02-20 01:17:00,
2013-02-19 17:18:00,45.9,33.2,29.70,NNW,338,3.6,3.6,61,0.00,,,0.00,WUHU216HW,2013-02-20 01:18:00,
2013-02-19 17:19:00,45.7,33.0,29.70,NW,315,1.8,3.6,61,0.00,,,0.00,WUHU216HW,2013-02-20 01:19:00,
2013-02-19 17:21:00,45.7,33.4,29.70,NNW,338,2.7,3.6,62,0.00,,,0.00,WUHU216HW,2013-02-20 01:21:00,
2013-02-19 17:22:00,45.7,33.4,29.70,NNE,23,1.6,3.6,62,0.00,,,0.00,WUHU216HW,2013-02-20 01:22:00,
2013-02-19 17:23:00,45.5,33.7,29.70,NNE,23,1.1,3.6,63,0.00,,,0.00,WUHU216HW,2013-02-20 01:23:00,
2013-02-19 17:24:00,45.4,33.5,29.70,NNE,23,0.2,3.6,63,0.00,,,0.00,WUHU216HW,2013-02-20 01:24:00,
2013-02-19 17:25:00,45.2,33.3,29.70,NE,45,3.6,3.6,63,0.00,,,0.00,WUHU216HW,2013-02-20 01:25:00,
2013-02-19 17:27:00,45.2,33.7,29.70,NNW,338,2.9,3.6,64,0.00,,,0.00,WUHU216HW,2013-02-20 01:27:00,
2013-02-19 17:28:00,45.0,33.6,29.70,NNW,338,1.8,3.6,64,0.00,,,0.00,WUHU216HW,2013-02-20 01:28:00,
2013-02-19 17:29:00,45.0,33.9,29.70,NNW,338,4.9,4.9,65,0.00,,,0.00,WUHU216HW,2013-02-20 01:29:00,
2013-02-19 17:30:00,45.0,33.9,29.71,NNW,338,1.8,4.9,65,0.00,,,0.00,WUHU216HW,2013-02-20 01:30:00,
2013-02-19 17:32:00,44.8,34.1,29.71,NNW,338,1.8,4.9,66,0.00,,,0.00,WUHU216HW,2013-02-20 01:32:00,
2013-02-19 17:33:00,44.8,34.1,29.71,North,0,2.0,4.9,66,0.00,,,0.00,WUHU216HW,2013-02-20 01:33:00,
2013-02-19 17:34:00,44.6,34.3,29.71,NW,315,0.9,4.9,67,0.00,,,0.00,WUHU216HW,2013-02-20 01:34:00,
2013-02-19 17:35:00,44.5,34.2,29.71,North,0,3.1,4.9,67,0.00,,,0.00,WUHU216HW,2013-02-20 01:35:00,
2013-02-19 17:37:00,44.3,34.4,29.71,NW,315,0.4,4.9,68,0.00,,,0.00,WUHU216HW,2013-02-20 01:37:00,
2013-02-19 17:38:00,44.3,34.4,29.71,North,0,1.1,4.9,68,0.00,,,0.00,WUHU216HW,2013-02-20 01:38:00,
2013-02-19 17:39:00,44.1,34.6,29.71,North,0,2.5,3.1,69,0.00,,,0.00,WUHU216HW,2013-02-20 01:39:00,
2013-02-19 17:40:00,44.1,34.6,29.71,NNE,23,1.6,3.1,69,0.00,,,0.00,WUHU216HW,2013-02-20 01:40:00,
2013-02-19 17:41:00,43.9,34.8,29.71,North,0,3.4,3.4,70,0.00,,,0.00,WUHU216HW,2013-02-20 01:41:00,
2013-02-19 17:43:00,43.9,34.8,29.71,NE,45,0.4,3.4,70,0.00,,,0.00,WUHU216HW,2013-02-20 01:43:00,
2013-02-19 17:44:00,43.9,34.5,29.71,NNE,23,2.5,3.4,69,0.00,,,0.00,WUHU216HW,2013-02-20 01:44:00,
2013-02-19 17:45:00,43.9,34.8,29.71,North,0,3.8,3.8,70,0.00,,,0.00,WUHU216HW,2013-02-20 01:45:00,
2013-02-19 17:46:00,43.7,34.7,29.71,North,0,1.6,3.8,70,0.00,,,0.00,WUHU216HW,2013-02-20 01:46:00,
2013-02-19 17:48:00,43.6,34.5,29.71,NNE,23,1.3,3.8,70,0.00,,,0.00,WUHU216HW,2013-02-20 01:48:00,
2013-02-19 17:49:00,43.6,34.8,29.71,NW,315,1.1,3.8,71,0.00,,,0.00,WUHU216HW,2013-02-20 01:49:00,
2013-02-19 17:50:00,43.4,34.3,29.71,North,0,1.1,3.8,70,0.00,,,0.00,WUHU216HW,2013-02-20 01:50:00,
2013-02-19 17:51:00,43.4,34.7,29.71,North,0,0.0,3.8,71,0.00,,,0.00,WUHU216HW,2013-02-20 01:51:00,
2013-02-19 17:53:00,43.2,34.5,29.71,NNE,23,1.1,3.8,71,0.00,,,0.00,WUHU216HW,2013-02-20 01:53:00,
2013-02-19 17:54:00,42.8,34.2,29.72,North,0,1.3,3.8,71,0.00,,,0.00,WUHU216HW,2013-02-20 01:54:00,
2013-02-19 17:55:00,42.8,34.2,29.72,NE,45,1.1,1.6,71,0.00,,,0.00,WUHU216HW,2013-02-20 01:55:00,
2013-02-19 17:56:00,42.7,34.0,29.72,ENE,68,0.4,1.3,71,0.00,,,0.00,WUHU216HW,2013-02-20 01:56:00,
2013-02-19 17:57:00,42.7,34.0,29.72,NE,45,1.1,1.3,71,0.00,,,0.00,WUHU216HW,2013-02-20 01:57:00,
2013-02-19 17:59:00,42.3,33.7,29.72,ENE,68,0.9,1.3,71,0.00,,,0.00,WUHU216HW,2013-02-20 01:59:00,
2013-02-19 18:01:00,42.1,34.4,29.72,ESE,113,1.1,1.3,74,0.00,,,0.00,WUHU216HW,2013-02-20 02:01:00,
2013-02-19 18:02:00,41.9,33.9,29.72,ENE,68,1.1,1.3,73,0.00,,,0.00,WUHU216HW,2013-02-20 02:02:00,
2013-02-19 18:03:00,41.8,34.0,29.72,ENE,68,1.6,1.6,74,0.00,,,0.00,WUHU216HW,2013-02-20 02:03:00,
2013-02-19 18:04:00,41.8,34.0,29.72,East,90,1.1,1.6,74,0.00,,,0.00,WUHU216HW,2013-02-20 02:04:00,
2013-02-19 18:06:00,41.4,34.4,29.72,East,90,1.1,1.6,76,0.00,,,0.00,WUHU216HW,2013-02-20 02:06:00,
2013-02-19 18:07:00,41.2,33.8,29.72,East,90,1.1,1.6,75,0.00,,,0.00,WUHU216HW,2013-02-20 02:07:00,
2013-02-19 18:08:00,41.0,34.3,29.72,East,90,1.1,1.6,77,0.00,,,0.00,WUHU216HW,2013-02-20 02:08:00,
2013-02-19 18:09:00,40.9,34.1,29.72,East,90,0.9,1.6,77,0.00,,,0.00,WUHU216HW,2013-02-20 02:09:00,
2013-02-19 18:10:00,40.7,33.9,29.73,East,90,0.7,1.6,77,0.00,,,0.00,WUHU216HW,2013-02-20 02:10:00,
2013-02-19 18:12:00,40.5,34.1,29.73,East,90,1.1,1.6,78,0.00,,,0.00,WUHU216HW,2013-02-20 02:12:00,
2013-02-19 18:13:00,40.3,33.7,29.73,East,90,1.6,1.6,77,0.00,,,0.00,WUHU216HW,2013-02-20 02:13:00,
2013-02-19 18:14:00,40.1,33.5,29.72,ESE,113,1.1,1.6,77,0.00,,,0.00,WUHU216HW,2013-02-20 02:14:00,
2013-02-19 18:15:00,40.0,33.3,29.73,ESE,113,1.1,1.6,77,0.00,,,0.00,WUHU216HW,2013-02-20 02:15:00,
2013-02-19 18:17:00,39.8,33.5,29.73,East,90,0.7,1.6,78,0.00,,,0.00,WUHU216HW,2013-02-20 02:17:00,
2013-02-19 18:18:00,39.6,33.7,29.73,ENE,68,0.4,1.6,79,0.00,,,0.00,WUHU216HW,2013-02-20 02:18:00,
2013-02-19 18:19:00,39.6,33.7,29.73,ENE,68,0.2,1.6,79,0.00,,,0.00,WUHU216HW,2013-02-20 02:19:00,
2013-02-19 18:20:00,39.4,33.5,29.73,ENE,68,0.4,1.6,79,0.00,,,0.00,WUHU216HW,2013-02-20 02:20:00,
2013-02-19 18:22:00,39.4,33.9,29.73,ENE,68,0.4,1.6,80,0.00,,,0.00,WUHU216HW,2013-02-20 02:22:00,
2013-02-19 18:23:00,39.2,33.7,29.73,East,90,0.4,1.1,80,0.00,,,0.00,WUHU216HW,2013-02-20 02:23:00,
2013-02-19 18:24:00,39.2,33.7,29.73,East,90,0.9,1.1,80,0.00,,,0.00,WUHU216HW,2013-02-20 02:24:00,
2013-02-19 18:25:00,39.2,33.7,29.73,East,90,0.4,1.1,80,0.00,,,0.00,WUHU216HW,2013-02-20 02:25:00,
2013-02-19 18:26:00,39.2,33.7,29.73,ESE,113,1.1,1.1,80,0.00,,,0.00,WUHU216HW,2013-02-20 02:26:00,
2013-02-19 18:28:00,39.1,33.1,29.73,ESE,113,0.9,1.1,79,0.00,,,0.00,WUHU216HW,2013-02-20 02:28:00,
2013-02-19 18:29:00,38.9,33.3,29.73,ESE,113,1.3,1.3,80,0.00,,,0.00,WUHU216HW,2013-02-20 02:29:00,
2013-02-19 18:30:00,38.9,33.3,29.73,ESE,113,1.1,1.3,80,0.00,,,0.00,WUHU216HW,2013-02-20 02:30:00,
2013-02-19 18:31:00,38.9,33.3,29.73,ESE,113,0.0,1.3,80,0.00,,,0.00,WUHU216HW,2013-02-20 02:31:00,
2013-02-19 18:33:00,38.7,32.8,29.73,NE,45,0.2,1.3,79,0.00,,,0.00,WUHU216HW,2013-02-20 02:33:00,
2013-02-19 18:34:00,38.5,32.6,29.73,NE,45,0.0,1.3,79,0.00,,,0.00,WUHU216HW,2013-02-20 02:34:00,
2013-02-19 18:35:00,38.5,32.6,29.73,NE,45,0.0,1.3,79,0.00,,,0.00,WUHU216HW,2013-02-20 02:35:00,
2013-02-19 18:36:00,38.3,32.8,29.73,NE,45,0.0,1.3,80,0.00,,,0.00,WUHU216HW,2013-02-20 02:36:00,
2013-02-19 18:38:00,38.0,32.4,29.73,NE,45,0.0,1.3,80,0.00,,,0.00,WUHU216HW,2013-02-20 02:38:00,
2013-02-19 18:39:00,37.8,32.2,29.73,NE,45,0.0,1.1,80,0.00,,,0.00,WUHU216HW,2013-02-20 02:39:00,
2013-02-19 18:40:00,37.8,32.8,29.73,NNE,23,0.4,0.4,82,0.00,,,0.00,WUHU216HW,2013-02-20 02:40:00,
2013-02-19 18:41:00,37.8,33.4,29.73,NNE,23,0.4,0.4,84,0.00,,,0.00,WUHU216HW,2013-02-20 02:41:00,
2013-02-19 18:42:00,37.8,33.4,29.74,NNE,23,0.4,0.4,84,0.00,,,0.00,WUHU216HW,2013-02-20 02:42:00,
2013-02-19 18:44:00,37.6,33.0,29.74,NNE,23,0.0,0.4,83,0.00,,,0.00,WUHU216HW,2013-02-20 02:44:00,
2013-02-19 18:45:00,37.4,32.4,29.73,NNE,23,0.0,0.4,82,0.00,,,0.00,WUHU216HW,2013-02-20 02:45:00,
2013-02-19 18:46:00,37.4,32.8,29.74,NNE,23,0.0,0.4,83,0.00,,,0.00,WUHU216HW,2013-02-20 02:46:00,
2013-02-19 18:47:00,37.4,32.8,29.74,ENE,68,0.0,0.4,83,0.00,,,0.00,WUHU216HW,2013-02-20 02:47:00,
2013-02-19 18:49:00,37.3,32.2,29.74,ESE,113,0.0,0.4,82,0.00,,,0.00,WUHU216HW,2013-02-20 02:49:00,
2013-02-19 18:50:00,37.3,32.2,29.74,ESE,113,0.0,0.4,82,0.00,,,0.00,WUHU216HW,2013-02-20 02:50:00,
2013-02-19 18:51:00,37.1,32.0,29.74,ESE,113,0.0,0.4,82,0.00,,,0.00,WUHU216HW,2013-02-20 02:51:00,
2013-02-19 18:52:00,37.1,32.0,29.74,ESE,113,0.0,0.0,82,0.00,,,0.00,WUHU216HW,2013-02-20 02:52:00,
2013-02-19 18:54:00,36.9,32.5,29.74,ENE,68,0.0,0.0,84,0.00,,,0.00,WUHU216HW,2013-02-20 02:54:00,
2013-02-19 18:55:00,36.7,32.3,29.74,ENE,68,0.0,0.0,84,0.00,,,0.00,WUHU216HW,2013-02-20 02:55:00,
2013-02-19 18:56:00,36.7,32.6,29.74,ENE,68,0.0,0.0,85,0.00,,,0.00,WUHU216HW,2013-02-20 02:56:00,
2013-02-19 18:57:00,36.7,32.9,29.74,NE,45,0.4,0.4,86,0.00,,,0.00,WUHU216HW,2013-02-20 02:57:00,
2013-02-19 18:58:00,36.5,32.7,29.74,NE,45,1.1,1.1,86,0.00,,,0.00,WUHU216HW,2013-02-20 02:58:00,
2013-02-19 18:59:00,36.5,32.7,29.74,NE,45,0.0,1.1,86,0.00,,,0.00,WUHU216HW,2013-02-20 02:59:00,
2013-02-19 19:02:00,36.4,32.2,29.75,North,0,0.0,1.1,85,0.00,,,0.00,WUHU216HW,2013-02-20 03:02:00,
2013-02-19 19:03:00,36.2,32.3,29.74,North,0,0.0,1.1,86,0.00,,,0.00,WUHU216HW,2013-02-20 03:03:00,
2013-02-19 19:04:00,36.2,32.6,29.74,NNE,23,0.0,1.1,87,0.00,,,0.00,WUHU216HW,2013-02-20 03:04:00,
2013-02-19 19:05:00,36.2,32.6,29.75,NNE,23,0.0,1.1,87,0.00,,,0.00,WUHU216HW,2013-02-20 03:05:00,
2013-02-19 19:06:00,36.0,32.4,29.75,NNE,23,0.4,1.1,87,0.00,,,0.00,WUHU216HW,2013-02-20 03:06:00,
2013-02-19 19:07:00,36.0,32.4,29.75,NE,45,0.4,1.1,87,0.00,,,0.00,WUHU216HW,2013-02-20 03:07:00,
2013-02-19 19:09:00,35.6,31.8,29.75,NNE,23,0.7,0.7,86,0.00,,,0.00,WUHU216HW,2013-02-20 03:09:00,
2013-02-19 19:10:00,35.6,31.8,29.75,ENE,68,0.2,0.7,86,0.00,,,0.00,WUHU216HW,2013-02-20 03:10:00,
2013-02-19 19:11:00,35.6,31.8,29.75,ENE,68,0.0,0.7,86,0.00,,,0.00,WUHU216HW,2013-02-20 03:11:00,
2013-02-19 19:12:00,35.6,31.8,29.75,ENE,68,0.0,0.7,86,0.00,,,0.00,WUHU216HW,2013-02-20 03:12:00,
2013-02-19 19:13:00,35.6,31.5,29.75,ESE,113,0.0,0.7,85,0.00,,,0.00,WUHU216HW,2013-02-20 03:13:00,
2013-02-19 19:15:00,35.6,31.5,29.75,ESE,113,0.0,0.7,85,0.00,,,0.00,WUHU216HW,2013-02-20 03:15:00,
2013-02-19 19:16:00,35.6,31.2,29.75,ESE,113,0.0,0.7,84,0.00,,,0.00,WUHU216HW,2013-02-20 03:16:00,
2013-02-19 19:17:00,35.6,31.2,29.75,ESE,113,0.0,0.7,84,0.00,,,0.00,WUHU216HW,2013-02-20 03:17:00,
2013-02-19 19:18:00,35.5,31.3,29.75,ESE,113,0.0,0.7,85,0.00,,,0.00,WUHU216HW,2013-02-20 03:18:00,
2013-02-19 19:20:00,35.3,30.9,29.75,ESE,113,0.0,0.0,84,0.00,,,0.00,WUHU216HW,2013-02-20 03:20:00,
2013-02-19 19:21:00,35.3,30.9,29.75,ESE,113,0.0,0.0,84,0.00,,,0.00,WUHU216HW,2013-02-20 03:21:00,
2013-02-19 19:22:00,35.1,30.7,29.75,ESE,113,0.0,0.0,84,0.00,,,0.00,WUHU216HW,2013-02-20 03:22:00,
2013-02-19 19:23:00,35.1,31.0,29.75,ESE,113,0.0,0.0,85,0.00,,,0.00,WUHU216HW,2013-02-20 03:23:00,
2013-02-19 19:25:00,34.9,31.1,29.76,ESE,113,0.0,0.0,86,0.00,,,0.00,WUHU216HW,2013-02-20 03:25:00,
2013-02-19 19:26:00,34.9,30.8,29.75,ESE,113,0.0,0.0,85,0.00,,,0.00,WUHU216HW,2013-02-20 03:26:00,
2013-02-19 19:27:00,34.7,30.3,29.76,SW,225,0.0,0.0,84,0.00,,,0.00,WUHU216HW,2013-02-20 03:27:00,
2013-02-19 19:28:00,34.7,30.3,29.76,SW,225,0.4,0.4,84,0.00,,,0.00,WUHU216HW,2013-02-20 03:28:00,
2013-02-19 19:29:00,34.6,30.2,29.76,SW,225,0.2,0.4,84,0.00,,,0.00,WUHU216HW,2013-02-20 03:29:00,
2013-02-19 19:31:00,34.4,30.2,29.76,SW,225,0.0,0.4,85,0.00,,,0.00,WUHU216HW,2013-02-20 03:31:00,
2013-02-19 19:32:00,34.4,30.2,29.76,SSW,203,0.0,0.4,85,0.00,,,0.00,WUHU216HW,2013-02-20 03:32:00,
2013-02-19 19:33:00,34.2,30.1,29.76,SSW,203,0.4,0.4,85,0.00,,,0.00,WUHU216HW,2013-02-20 03:33:00,
2013-02-19 19:34:00,34.2,30.1,29.76,South,180,0.7,0.7,85,0.00,,,0.00,WUHU216HW,2013-02-20 03:34:00,
2013-02-19 19:36:00,34.2,30.3,29.76,South,180,1.1,1.3,86,0.00,,,0.00,WUHU216HW,2013-02-20 03:36:00,
2013-02-19 19:37:00,34.2,30.1,29.76,South,180,0.4,1.3,85,0.00,,,0.00,WUHU216HW,2013-02-20 03:37:00,
2013-02-19 19:38:00,34.2,30.1,29.77,South,180,0.4,1.3,85,0.00,,,0.00,WUHU216HW,2013-02-20 03:38:00,
2013-02-19 19:39:00,34.2,30.1,29.76,South,180,0.4,1.3,85,0.00,,,0.00,WUHU216HW,2013-02-20 03:39:00,
2013-02-19 19:40:00,34.2,29.8,29.77,South,180,0.4,1.3,84,0.00,,,0.00,WUHU216HW,2013-02-20 03:40:00,
2013-02-19 19:41:00,34.2,29.8,29.77,South,180,0.0,1.3,84,0.00,,,0.00,WUHU216HW,2013-02-20 03:41:00,
2013-02-19 19:42:00,34.0,30.2,29.76,South,180,0.0,1.3,86,0.00,,,0.00,WUHU216HW,2013-02-20 03:42:00,
2013-02-19 19:43:00,34.0,30.2,29.76,South,180,0.0,1.3,86,0.00,,,0.00,WUHU216HW,2013-02-20 03:43:00,
2013-02-19 19:44:00,33.8,30.0,29.76,SSE,158,0.0,1.3,86,0.00,,,0.00,WUHU216HW,2013-02-20 03:44:00,
2013-02-19 19:45:00,33.8,30.0,29.76,SSE,158,0.0,1.1,86,0.00,,,0.00,WUHU216HW,2013-02-20 03:45:00,
2013-02-19 19:46:00,33.7,29.8,29.77,SSE,158,0.0,0.4,86,0.00,,,0.00,WUHU216HW,2013-02-20 03:46:00,
2013-02-19 19:47:00,33.7,29.8,29.76,SSE,158,0.0,0.4,86,0.00,,,0.00,WUHU216HW,2013-02-20 03:47:00,
2013-02-19 19:48:00,33.5,29.3,29.77,SSE,158,0.0,0.4,85,0.00,,,0.00,WUHU216HW,2013-02-20 03:48:00,
2013-02-19 19:49:00,33.5,29.3,29.77,South,180,0.0,0.4,85,0.00,,,0.00,WUHU216HW,2013-02-20 03:49:00,
2013-02-19 19:50:00,33.5,29.7,29.76,South,180,0.0,0.0,86,0.00,,,0.00,WUHU216HW,2013-02-20 03:50:00,
2013-02-19 19:51:00,33.3,29.5,29.77,South,180,0.0,0.0,86,0.00,,,0.00,WUHU216HW,2013-02-20 03:51:00,
2013-02-19 19:52:00,33.3,29.8,29.77,South,180,0.0,0.0,87,0.00,,,0.00,WUHU216HW,2013-02-20 03:52:00,
2013-02-19 19:53:00,33.3,29.8,29.77,South,180,0.0,0.0,87,0.00,,,0.00,WUHU216HW,2013-02-20 03:53:00,
2013-02-19 19:54:00,33.1,29.6,29.77,South,180,0.0,0.0,87,0.00,,,0.00,WUHU216HW,2013-02-20 03:54:00,
2013-02-19 19:55:00,33.1,29.3,29.77,South,180,0.0,0.0,86,0.00,,,0.00,WUHU216HW,2013-02-20 03:55:00,
2013-02-19 19:56:00,33.1,29.9,29.77,South,180,0.0,0.0,88,0.00,,,0.00,WUHU216HW,2013-02-20 03:56:00,
2013-02-19 19:57:00,32.9,29.8,29.77,South,180,0.0,0.0,88,0.00,,,0.00,WUHU216HW,2013-02-20 03:57:00,
2013-02-19 19:58:00,32.9,29.8,29.77,South,180,0.0,0.0,88,0.00,,,0.00,WUHU216HW,2013-02-20 03:58:00,
2013-02-19 19:59:00,32.9,30.1,29.77,South,180,0.0,0.0,89,0.00,,,0.00,WUHU216HW,2013-02-20 03:59:00,
2013-02-19 20:01:00,32.9,30.1,29.77,South,180,0.0,0.0,89,0.00,,,0.00,WUHU216HW,2013-02-20 04:01:00,
2013-02-19 20:02:00,32.8,29.9,29.77,SSE,158,0.0,0.0,89,0.00,,,0.00,WUHU216HW,2013-02-20 04:02:00,
2013-02-19 20:03:00,32.9,30.3,29.77,SSE,158,0.0,0.0,90,0.00,,,0.00,WUHU216HW,2013-02-20 04:03:00,
2013-02-19 20:04:00,32.9,30.1,29.77,SSE,158,0.0,0.0,89,0.00,,,0.00,WUHU216HW,2013-02-20 04:04:00,
2013-02-19 20:05:00,32.9,30.1,29.78,SSE,158,0.0,0.0,89,0.00,,,0.00,WUHU216HW,2013-02-20 04:05:00,
2013-02-19 20:06:00,33.1,30.3,29.77,SSE,158,0.0,0.0,89,0.00,,,0.00,WUHU216HW,2013-02-20 04:06:00,
2013-02-19 20:07:00,33.1,30.3,29.78,SSE,158,0.0,0.0,89,0.00,,,0.00,WUHU216HW,2013-02-20 04:07:00,
2013-02-19 20:08:00,33.1,29.9,29.77,SSE,158,0.0,0.0,88,0.00,,,0.00,WUHU216HW,2013-02-20 04:08:00,
2013-02-19 20:09:00,33.1,29.9,29.78,South,180,0.0,0.0,88,0.00,,,0.00,WUHU216HW,2013-02-20 04:09:00,
2013-02-19 20:10:00,33.1,29.9,29.78,South,180,0.7,0.7,88,0.00,,,0.00,WUHU216HW,2013-02-20 04:10:00,
2013-02-19 20:11:00,33.1,29.9,29.78,South,180,0.7,0.7,88,0.00,,,0.00,WUHU216HW,2013-02-20 04:11:00,
2013-02-19 20:12:00,32.9,29.8,29.78,South,180,0.7,0.7,88,0.00,,,0.00,WUHU216HW,2013-02-20 04:12:00,
2013-02-19 20:13:00,32.9,29.8,29.77,South,180,0.0,0.7,88,0.00,,,0.00,WUHU216HW,2013-02-20 04:13:00,
2013-02-19 20:14:00,32.9,29.4,29.78,SSW,203,0.4,0.7,87,0.00,,,0.00,WUHU216HW,2013-02-20 04:14:00,
2013-02-19 20:15:00,32.8,29.4,29.77,SSW,203,0.9,0.9,87,0.00,,,0.00,WUHU216HW,2013-02-20 04:15:00,
2013-02-19 20:16:00,32.8,29.4,29.77,SSW,203,0.7,0.9,87,0.00,,,0.00,WUHU216HW,2013-02-20 04:16:00,
2013-02-19 20:17:00,32.8,29.4,29.78,SSW,203,0.4,0.9,87,0.00,,,0.00,WUHU216HW,2013-02-20 04:17:00,
2013-02-19 20:18:00,32.8,29.4,29.78,SSW,203,0.4,0.9,87,0.00,,,0.00,WUHU216HW,2013-02-20 04:18:00,
2013-02-19 20:19:00,32.8,29.0,29.78,SSW,203,0.4,0.9,86,0.00,,,0.00,WUHU216HW,2013-02-20 04:19:00,
2013-02-19 20:20:00,32.6,29.2,29.78,SSW,203,0.0,0.9,87,0.00,,,0.00,WUHU216HW,2013-02-20 04:20:00,
2013-02-19 20:21:00,32.6,29.2,29.78,SSW,203,0.0,0.9,87,0.00,,,0.00,WUHU216HW,2013-02-20 04:21:00,
2013-02-19 20:22:00,32.4,29.3,29.78,SSW,203,0.0,0.9,88,0.00,,,0.00,WUHU216HW,2013-02-20 04:22:00,
2013-02-19 20:23:00,32.4,29.3,29.77,SSW,203,0.0,0.9,88,0.00,,,0.00,WUHU216HW,2013-02-20 04:23:00,
2013-02-19 20:24:00,32.2,29.1,29.78,SSW,203,0.0,0.9,88,0.00,,,0.00,WUHU216HW,2013-02-20 04:24:00,
2013-02-19 20:25:00,32.2,28.8,29.78,SSW,203,0.0,0.7,87,0.00,,,0.00,WUHU216HW,2013-02-20 04:25:00,
2013-02-19 20:26:00,32.0,28.6,29.78,SSW,203,0.0,0.4,87,0.00,,,0.00,WUHU216HW,2013-02-20 04:26:00,
2013-02-19 20:27:00,32.0,28.6,29.78,SSW,203,0.0,0.4,87,0.00,,,0.00,WUHU216HW,2013-02-20 04:27:00,
2013-02-19 20:28:00,32.0,28.6,29.78,SSW,203,0.0,0.4,87,0.00,,,0.00,WUHU216HW,2013-02-20 04:28:00,
2013-02-19 20:29:00,32.0,28.4,29.78,SSW,203,0.7,0.7,86,0.00,,,0.00,WUHU216HW,2013-02-20 04:29:00,
2013-02-19 20:30:00,32.0,28.6,29.78,SSW,203,0.4,0.7,87,0.00,,,0.00,WUHU216HW,2013-02-20 04:30:00,
2013-02-19 20:31:00,31.9,28.4,29.78,SSW,203,0.0,0.7,87,0.00,,,0.00,WUHU216HW,2013-02-20 04:31:00,
2013-02-19 20:32:00,31.9,28.8,29.78,SSW,203,0.0,0.7,88,0.00,,,0.00,WUHU216HW,2013-02-20 04:32:00,
2013-02-19 20:33:00,31.7,28.9,29.78,SSW,203,0.0,0.7,89,0.00,,,0.00,WUHU216HW,2013-02-20 04:33:00,
2013-02-19 20:34:00,31.7,28.9,29.78,SSW,203,0.0,0.7,89,0.00,,,0.00,WUHU216HW,2013-02-20 04:34:00,
2013-02-19 20:35:00,31.7,28.9,29.78,SSE,158,0.0,0.7,89,0.00,,,0.00,WUHU216HW,2013-02-20 04:35:00,
2013-02-19 20:36:00,31.5,28.7,29.78,SSE,158,0.0,0.7,89,0.00,,,0.00,WUHU216HW,2013-02-20 04:36:00,
2013-02-19 20:37:00,31.7,28.9,29.78,SSE,158,0.0,0.7,89,0.00,,,0.00,WUHU216HW,2013-02-20 04:37:00,
2013-02-19 20:38:00,31.7,28.9,29.78,SSE,158,0.0,0.7,89,0.00,,,0.00,WUHU216HW,2013-02-20 04:38:00,
2013-02-19 20:39:00,31.9,29.1,29.78,SSE,158,0.0,0.4,89,0.00,,,0.00,WUHU216HW,2013-02-20 04:39:00,
2013-02-19 20:40:00,31.9,29.1,29.78,SSE,158,0.0,0.0,89,0.00,,,0.00,WUHU216HW,2013-02-20 04:40:00,
2013-02-19 20:41:00,31.7,28.9,29.78,SSE,158,0.0,0.0,89,0.00,,,0.00,WUHU216HW,2013-02-20 04:41:00,
2013-02-19 20:42:00,31.7,28.9,29.78,SSE,158,0.0,0.0,89,0.00,,,0.00,WUHU216HW,2013-02-20 04:42:00,
2013-02-19 20:43:00,31.7,28.9,29.79,SSE,158,0.0,0.0,89,0.00,,,0.00,WUHU216HW,2013-02-20 04:43:00,
2013-02-19 20:44:00,31.7,28.9,29.79,SSE,158,0.0,0.0,89,0.00,,,0.00,WUHU216HW,2013-02-20 04:44:00,
2013-02-19 20:45:00,31.7,28.6,29.79,SSE,158,0.0,0.0,88,0.00,,,0.00,WUHU216HW,2013-02-20 04:45:00,
2013-02-19 20:46:00,31.5,28.5,29.79,SSE,158,0.0,0.0,88,0.00,,,0.00,WUHU216HW,2013-02-20 04:46:00,
2013-02-19 20:47:00,31.5,28.5,29.79,SSE,158,0.0,0.0,88,0.00,,,0.00,WUHU216HW,2013-02-20 04:47:00,
2013-02-19 20:48:00,31.5,28.5,29.79,SSE,158,0.0,0.0,88,0.00,,,0.00,WUHU216HW,2013-02-20 04:48:00,
2013-02-19 20:49:00,31.3,28.3,29.79,SSE,158,0.0,0.0,88,0.00,,,0.00,WUHU216HW,2013-02-20 04:49:00,
2013-02-19 20:50:00,31.3,28.5,29.79,SSE,158,0.0,0.0,89,0.00,,,0.00,WUHU216HW,2013-02-20 04:50:00,
2013-02-19 20:51:00,31.3,28.5,29.79,SSE,158,0.0,0.0,89,0.00,,,0.00,WUHU216HW,2013-02-20 04:51:00,
2013-02-19 20:52:00,31.3,28.5,29.79,SSE,158,0.0,0.0,89,0.00,,,0.00,WUHU216HW,2013-02-20 04:52:00,
2013-02-19 20:53:00,31.1,28.6,29.79,SSE,158,0.0,0.0,90,0.00,,,0.00,WUHU216HW,2013-02-20 04:53:00,
2013-02-19 20:54:00,31.1,28.6,29.79,SSE,158,0.0,0.0,90,0.00,,,0.00,WUHU216HW,2013-02-20 04:54:00,
2013-02-19 20:55:00,31.1,28.4,29.79,SSE,158,0.0,0.0,89,0.00,,,0.00,WUHU216HW,2013-02-20 04:55:00,
2013-02-19 20:56:00,31.1,28.4,29.79,SSE,158,0.0,0.0,89,0.00,,,0.00,WUHU216HW,2013-02-20 04:56:00,
2013-02-19 20:57:00,31.1,28.4,29.80,SSE,158,0.0,0.0,89,0.00,,,0.00,WUHU216HW,2013-02-20 04:57:00,
2013-02-19 20:58:00,31.1,28.4,29.79,SSE,158,0.0,0.0,89,0.00,,,0.00,WUHU216HW,2013-02-20 04:58:00,
2013-02-19 20:59:00,31.0,28.2,29.79,SSE,158,0.0,0.0,89,0.00,,,0.00,WUHU216HW,2013-02-20 04:59:00,
2013-02-19 21:00:00,31.0,28.2,29.80,SSE,158,0.0,0.0,89,0.00,,,0.00,WUHU216HW,2013-02-20 05:00:00,
2013-02-19 21:02:00,31.0,28.2,29.80,SSE,158,0.0,0.0,89,0.00,,,0.00,WUHU216HW,2013-02-20 05:02:00,
2013-02-19 21:04:00,31.0,28.2,29.80,South,180,0.0,0.0,89,0.00,,,0.00,WUHU216HW,2013-02-20 05:04:00,
2013-02-19 21:05:00,31.0,27.9,29.80,South,180,0.2,0.2,88,0.00,,,0.00,WUHU216HW,2013-02-20 05:05:00,
2013-02-19 21:06:00,31.0,28.2,29.80,South,180,0.4,0.4,89,0.00,,,0.00,WUHU216HW,2013-02-20 05:06:00,
2013-02-19 21:07:00,31.0,28.2,29.80,South,180,0.0,0.4,89,0.00,,,0.00,WUHU216HW,2013-02-20 05:07:00,
2013-02-19 21:09:00,30.8,28.0,29.80,South,180,0.0,0.4,89,0.00,,,0.00,WUHU216HW,2013-02-20 05:09:00,
2013-02-19 21:10:00,30.8,28.0,29.79,South,180,0.0,0.4,89,0.00,,,0.00,WUHU216HW,2013-02-20 05:10:00,
2013-02-19 21:11:00,30.6,27.8,29.80,South,180,0.0,0.4,89,0.00,,,0.00,WUHU216HW,2013-02-20 05:11:00,
2013-02-19 21:12:00,30.6,27.6,29.79,South,180,0.0,0.4,88,0.00,,,0.00,WUHU216HW,2013-02-20 05:12:00,
2013-02-19 21:14:00,30.6,27.6,29.80,South,180,0.0,0.4,88,0.00,,,0.00,WUHU216HW,2013-02-20 05:14:00,
2013-02-19 21:15:00,30.4,27.4,29.80,South,180,0.0,0.4,88,0.00,,,0.00,WUHU216HW,2013-02-20 05:15:00,
2013-02-19 21:16:00,30.4,27.4,29.80,South,180,0.0,0.0,88,0.00,,,0.00,WUHU216HW,2013-02-20 05:16:00,
2013-02-19 21:17:00,30.2,27.2,29.80,South,180,0.0,0.0,88,0.00,,,0.00,WUHU216HW,2013-02-20 05:17:00,
2013-02-19 21:19:00,30.1,27.0,29.80,South,180,0.0,0.0,88,0.00,,,0.00,WUHU216HW,2013-02-20 05:19:00,
2013-02-19 21:20:00,30.1,27.0,29.80,South,180,0.0,0.0,88,0.00,,,0.00,WUHU216HW,2013-02-20 05:20:00,
2013-02-19 21:21:00,30.1,27.0,29.80,South,180,0.0,0.0,88,0.00,,,0.00,WUHU216HW,2013-02-20 05:21:00,
2013-02-19 21:22:00,30.1,27.0,29.80,South,180,0.0,0.0,88,0.00,,,0.00,WUHU216HW,2013-02-20 05:22:00,
2013-02-19 21:24:00,29.9,27.1,29.80,South,180,0.0,0.0,89,0.00,,,0.00,WUHU216HW,2013-02-20 05:24:00,
2013-02-19 21:25:00,29.9,27.1,29.80,South,180,0.0,0.0,89,0.00,,,0.00,WUHU216HW,2013-02-20 05:25:00,
2013-02-19 21:26:00,29.9,27.1,29.80,South,180,0.0,0.0,89,0.00,,,0.00,WUHU216HW,2013-02-20 05:26:00,
2013-02-19 21:27:00,29.9,27.1,29.80,South,180,0.0,0.0,89,0.00,,,0.00,WUHU216HW,2013-02-20 05:27:00,
2013-02-19 21:28:00,29.9,27.1,29.80,South,180,0.0,0.0,89,0.00,,,0.00,WUHU216HW,2013-02-20 05:28:00,
2013-02-19 21:30:00,29.9,27.1,29.81,South,180,0.0,0.0,89,0.00,,,0.00,WUHU216HW,2013-02-20 05:30:00,
2013-02-19 21:31:00,29.9,27.1,29.81,South,180,0.0,0.0,89,0.00,,,0.00,WUHU216HW,2013-02-20 05:31:00,
2013-02-19 21:32:00,29.9,27.1,29.81,South,180,0.0,0.0,89,0.00,,,0.00,WUHU216HW,2013-02-20 05:32:00,
2013-02-19 21:33:00,29.9,27.1,29.80,South,180,0.0,0.0,89,0.00,,,0.00,WUHU216HW,2013-02-20 05:33:00,
2013-02-19 21:35:00,30.1,27.0,29.81,South,180,0.0,0.0,88,0.00,,,0.00,WUHU216HW,2013-02-20 05:35:00,
2013-02-19 21:36:00,30.1,27.0,29.81,SSW,203,0.0,0.0,88,0.00,,,0.00,WUHU216HW,2013-02-20 05:36:00,
2013-02-19 21:37:00,30.1,27.0,29.81,SSW,203,0.0,0.0,88,0.00,,,0.00,WUHU216HW,2013-02-20 05:37:00,
2013-02-19 21:38:00,30.1,27.0,29.81,SW,225,0.0,0.0,88,0.00,,,0.00,WUHU216HW,2013-02-20 05:38:00,
2013-02-19 21:39:00,29.9,26.8,29.81,SW,225,0.0,0.0,88,0.00,,,0.00,WUHU216HW,2013-02-20 05:39:00,
2013-02-19 21:41:00,29.9,26.8,29.81,SW,225,0.0,0.0,88,0.00,,,0.00,WUHU216HW,2013-02-20 05:41:00,
2013-02-19 21:42:00,29.9,26.8,29.81,SW,225,0.0,0.0,88,0.00,,,0.00,WUHU216HW,2013-02-20 05:42:00,
2013-02-19 21:43:00,29.7,26.7,29.81,SW,225,0.0,0.0,88,0.00,,,0.00,WUHU216HW,2013-02-20 05:43:00,
2013-02-19 21:44:00,29.7,26.7,29.81,SW,225,0.0,0.0,88,0.00,,,0.00,WUHU216HW,2013-02-20 05:44:00,
2013-02-19 21:46:00,29.5,26.5,29.81,SW,225,0.0,0.0,88,0.00,,,0.00,WUHU216HW,2013-02-20 05:46:00,
2013-02-19 21:47:00,29.3,26.3,29.81,SW,225,0.0,0.0,88,0.00,,,0.00,WUHU216HW,2013-02-20 05:47:00,
2013-02-19 21:48:00,29.3,26.3,29.81,SW,225,0.0,0.0,88,0.00,,,0.00,WUHU216HW,2013-02-20 05:48:00,
2013-02-19 21:49:00,29.2,26.1,29.81,SW,225,0.0,0.0,88,0.00,,,0.00,WUHU216HW,2013-02-20 05:49:00,
2013-02-19 21:51:00,29.2,26.1,29.81,SW,225,0.0,0.0,88,0.00,,,0.00,WUHU216HW,2013-02-20 05:51:00,
2013-02-19 21:52:00,29.2,26.1,29.81,SW,225,0.0,0.0,88,0.00,,,0.00,WUHU216HW,2013-02-20 05:52:00,
2013-02-19 21:53:00,29.2,26.1,29.81,SW,225,0.0,0.0,88,0.00,,,0.00,WUHU216HW,2013-02-20 05:53:00,
2013-02-19 21:54:00,29.2,26.4,29.81,SW,225,0.0,0.0,89,0.00,,,0.00,WUHU216HW,2013-02-20 05:54:00,
2013-02-19 21:56:00,29.0,26.2,29.81,SW,225,0.0,0.0,89,0.00,,,0.00,WUHU216HW,2013-02-20 05:56:00,
2013-02-19 21:57:00,29.0,26.2,29.81,SSW,203,0.0,0.0,89,0.00,,,0.00,WUHU216HW,2013-02-20 05:57:00,
2013-02-19 21:58:00,29.0,26.2,29.81,South,180,0.0,0.0,89,0.00,,,0.00,WUHU216HW,2013-02-20 05:58:00,
2013-02-19 21:59:00,29.0,26.2,29.82,South,180,0.0,0.0,89,0.00,,,0.00,WUHU216HW,2013-02-20 05:59:00,
2013-02-19 22:00:00,29.0,26.2,29.82,South,180,0.0,0.0,89,0.00,,,0.00,WUHU216HW,2013-02-20 06:00:00,
2013-02-19 22:02:00,29.0,26.2,29.82,South,180,0.0,0.0,89,0.00,,,0.00,WUHU216HW,2013-02-20 06:02:00,
2013-02-19 22:04:00,29.0,26.2,29.82,South,180,0.0,0.0,89,0.00,,,0.00,WUHU216HW,2013-02-20 06:04:00,
2013-02-19 22:05:00,28.8,26.0,29.82,South,180,0.0,0.0,89,0.00,,,0.00,WUHU216HW,2013-02-20 06:05:00,
2013-02-19 22:06:00,29.0,26.5,29.82,South,180,0.0,0.0,90,0.00,,,0.00,WUHU216HW,2013-02-20 06:06:00,
2013-02-19 22:07:00,29.0,26.5,29.82,South,180,0.0,0.0,90,0.00,,,0.00,WUHU216HW,2013-02-20 06:07:00,
2013-02-19 22:08:00,29.0,26.5,29.82,South,180,0.0,0.0,90,0.00,,,0.00,WUHU216HW,2013-02-20 06:08:00,
2013-02-19 22:10:00,29.2,26.6,29.82,South,180,0.0,0.0,90,0.00,,,0.00,WUHU216HW,2013-02-20 06:10:00,
2013-02-19 22:11:00,29.2,26.6,29.82,South,180,0.0,0.0,90,0.00,,,0.00,WUHU216HW,2013-02-20 06:11:00,
2013-02-19 22:12:00,29.3,26.6,29.82,South,180,0.0,0.0,89,0.00,,,0.00,WUHU216HW,2013-02-20 06:12:00,
2013-02-19 22:13:00,29.3,26.6,29.82,SSW,203,0.0,0.0,89,0.00,,,0.00,WUHU216HW,2013-02-20 06:13:00,
2013-02-19 22:15:00,29.3,26.6,29.82,SSW,203,0.0,0.0,89,0.00,,,0.00,WUHU216HW,2013-02-20 06:15:00,
2013-02-19 22:16:00,29.3,26.6,29.82,SSW,203,0.0,0.0,89,0.00,,,0.00,WUHU216HW,2013-02-20 06:16:00,
2013-02-19 22:17:00,29.2,26.4,29.82,SSW,203,0.0,0.0,89,0.00,,,0.00,WUHU216HW,2013-02-20 06:17:00,
2013-02-19 22:18:00,29.2,26.4,29.82,SSW,203,0.0,0.0,89,0.00,,,0.00,WUHU216HW,2013-02-20 06:18:00,
2013-02-19 22:20:00,29.2,26.6,29.82,SSW,203,0.0,0.0,90,0.00,,,0.00,WUHU216HW,2013-02-20 06:20:00,
2013-02-19 22:21:00,29.2,26.6,29.82,SSW,203,0.0,0.0,90,0.00,,,0.00,WUHU216HW,2013-02-20 06:21:00,
2013-02-19 22:22:00,29.2,26.6,29.82,SSW,203,0.0,0.0,90,0.00,,,0.00,WUHU216HW,2013-02-20 06:22:00,
2013-02-19 22:23:00,29.2,26.4,29.82,SSW,203,0.0,0.0,89,0.00,,,0.00,WUHU216HW,2013-02-20 06:23:00,
2013-02-19 22:24:00,29.2,26.4,29.82,SSW,203,0.0,0.0,89,0.00,,,0.00,WUHU216HW,2013-02-20 06:24:00,
2013-02-19 22:26:00,29.2,26.4,29.83,SSW,203,0.0,0.0,89,0.00,,,0.00,WUHU216HW,2013-02-20 06:26:00,
2013-02-19 22:27:00,29.2,26.4,29.83,SSW,203,0.0,0.0,89,0.00,,,0.00,WUHU216HW,2013-02-20 06:27:00,
2013-02-19 22:28:00,29.2,26.4,29.83,SSW,203,0.0,0.0,89,0.00,,,0.00,WUHU216HW,2013-02-20 06:28:00,
2013-02-19 22:29:00,29.2,26.4,29.83,SSW,203,0.0,0.0,89,0.00,,,0.00,WUHU216HW,2013-02-20 06:29:00,
2013-02-19 22:31:00,29.2,26.6,29.83,SSW,203,0.0,0.0,90,0.00,,,0.00,WUHU216HW,2013-02-20 06:31:00,
2013-02-19 22:32:00,29.3,26.8,29.83,SSW,203,0.0,0.0,90,0.00,,,0.00,WUHU216HW,2013-02-20 06:32:00,
2013-02-19 22:33:00,29.3,26.6,29.83,SSW,203,0.0,0.0,89,0.00,,,0.00,WUHU216HW,2013-02-20 06:33:00,
2013-02-19 22:34:00,29.5,26.7,29.83,SSW,203,0.0,0.0,89,0.00,,,0.00,WUHU216HW,2013-02-20 06:34:00,
2013-02-19 22:36:00,29.5,26.7,29.83,SSW,203,0.0,0.0,89,0.00,,,0.00,WUHU216HW,2013-02-20 06:36:00,
2013-02-19 22:37:00,29.5,26.7,29.83,SSW,203,0.0,0.0,89,0.00,,,0.00,WUHU216HW,2013-02-20 06:37:00,
2013-02-19 22:38:00,29.5,26.7,29.83,SSW,203,0.0,0.0,89,0.00,,,0.00,WUHU216HW,2013-02-20 06:38:00,
2013-02-19 22:39:00,29.5,26.7,29.83,SSW,203,0.0,0.0,89,0.00,,,0.00,WUHU216HW,2013-02-20 06:39:00,
2013-02-19 22:40:00,29.5,26.7,29.83,SSW,203,0.0,0.0,89,0.00,,,0.00,WUHU216HW,2013-02-20 06:40:00,
2013-02-19 22:42:00,29.5,26.7,29.83,SSW,203,0.0,0.0,89,0.00,,,0.00,WUHU216HW,2013-02-20 06:42:00,
2013-02-19 22:43:00,29.5,26.7,29.83,SSW,203,0.0,0.0,89,0.00,,,0.00,WUHU216HW,2013-02-20 06:43:00,
2013-02-19 22:44:00,29.5,26.7,29.83,SSW,203,0.0,0.0,89,0.00,,,0.00,WUHU216HW,2013-02-20 06:44:00,
2013-02-19 22:45:00,29.5,26.7,29.83,SSW,203,0.0,0.0,89,0.00,,,0.00,WUHU216HW,2013-02-20 06:45:00,
2013-02-19 22:47:00,29.3,26.6,29.83,SSW,203,0.0,0.0,89,0.00,,,0.00,WUHU216HW,2013-02-20 06:47:00,
2013-02-19 22:48:00,29.5,26.7,29.83,SSW,203,0.0,0.0,89,0.00,,,0.00,WUHU216HW,2013-02-20 06:48:00,
2013-02-19 22:49:00,29.5,26.7,29.83,SSW,203,0.0,0.0,89,0.00,,,0.00,WUHU216HW,2013-02-20 06:49:00,
2013-02-19 22:50:00,29.5,26.7,29.84,SSW,203,0.0,0.0,89,0.00,,,0.00,WUHU216HW,2013-02-20 06:50:00,
2013-02-19 22:52:00,29.5,26.7,29.84,SSW,203,0.0,0.0,89,0.00,,,0.00,WUHU216HW,2013-02-20 06:52:00,
2013-02-19 22:53:00,29.5,26.7,29.84,South,180,0.0,0.0,89,0.00,,,0.00,WUHU216HW,2013-02-20 06:53:00,
2013-02-19 22:54:00,29.5,26.7,29.84,South,180,0.0,0.0,89,0.00,,,0.00,WUHU216HW,2013-02-20 06:54:00,
2013-02-19 22:55:00,29.5,26.7,29.84,South,180,0.0,0.0,89,0.00,,,0.00,WUHU216HW,2013-02-20 06:55:00,
2013-02-19 22:57:00,29.5,26.7,29.84,South,180,0.0,0.0,89,0.00,,,0.00,WUHU216HW,2013-02-20 06:57:00,
2013-02-19 22:58:00,29.5,26.7,29.84,NE,45,0.0,0.0,89,0.00,,,0.00,WUHU216HW,2013-02-20 06:58:00,
2013-02-19 22:59:00,29.5,27.0,29.84,NE,45,0.0,0.0,90,0.00,,,0.00,WUHU216HW,2013-02-20 06:59:00,
2013-02-19 23:00:00,29.5,27.0,29.84,NE,45,0.0,0.0,90,0.00,,,0.00,WUHU216HW,2013-02-20 07:00:00,
2013-02-19 23:01:00,29.5,27.0,29.84,NE,45,0.0,0.0,90,0.00,,,0.00,WUHU216HW,2013-02-20 07:01:00,
2013-02-19 23:02:00,29.5,27.0,29.84,NE,45,0.0,0.0,90,0.00,,,0.00,WUHU216HW,2013-02-20 07:02:00,
2013-02-19 23:05:00,29.5,27.0,29.84,NE,45,0.0,0.0,90,0.00,,,0.00,WUHU216HW,2013-02-20 07:05:00,
2013-02-19 23:06:00,29.5,27.0,29.84,ENE,68,0.0,0.0,90,0.00,,,0.00,WUHU216HW,2013-02-20 07:06:00,
2013-02-19 23:07:00,29.5,27.0,29.84,ENE,68,0.0,0.0,90,0.00,,,0.00,WUHU216HW,2013-02-20 07:07:00,
2013-02-19 23:08:00,29.5,27.0,29.84,ENE,68,0.0,0.0,90,0.00,,,0.00,WUHU216HW,2013-02-20 07:08:00,
2013-02-19 23:09:00,29.5,27.3,29.84,ENE,68,0.0,0.0,91,0.00,,,0.00,WUHU216HW,2013-02-20 07:09:00,
2013-02-19 23:11:00,29.5,27.3,29.84,ENE,68,0.0,0.0,91,0.00,,,0.00,WUHU216HW,2013-02-20 07:11:00,
2013-02-19 23:12:00,29.7,27.5,29.84,ENE,68,0.0,0.0,91,0.00,,,0.00,WUHU216HW,2013-02-20 07:12:00,
2013-02-19 23:13:00,29.7,27.5,29.84,ENE,68,0.0,0.0,91,0.00,,,0.00,WUHU216HW,2013-02-20 07:13:00,
2013-02-19 23:14:00,29.7,27.5,29.84,ENE,68,0.0,0.0,91,0.00,,,0.00,WUHU216HW,2013-02-20 07:14:00,
2013-02-19 23:16:00,29.7,27.5,29.84,SSE,158,0.0,0.0,91,0.00,,,0.00,WUHU216HW,2013-02-20 07:16:00,
2013-02-19 23:17:00,29.7,27.2,29.84,SSE,158,0.0,0.0,90,0.00,,,0.00,WUHU216HW,2013-02-20 07:17:00,
2013-02-19 23:18:00,29.9,27.4,29.84,SSE,158,0.0,0.0,90,0.00,,,0.00,WUHU216HW,2013-02-20 07:18:00,
2013-02-19 23:19:00,29.9,27.4,29.85,SSW,203,0.0,0.0,90,0.00,,,0.00,WUHU216HW,2013-02-20 07:19:00,
2013-02-19 23:21:00,29.9,27.4,29.84,SSW,203,0.0,0.0,90,0.00,,,0.00,WUHU216HW,2013-02-20 07:21:00,
2013-02-19 23:22:00,29.9,27.4,29.84,SSW,203,0.0,0.0,90,0.00,,,0.00,WUHU216HW,2013-02-20 07:22:00,
2013-02-19 23:23:00,29.9,27.4,29.84,SSW,203,0.0,0.0,90,0.00,,,0.00,WUHU216HW,2013-02-20 07:23:00,
2013-02-19 23:24:00,29.9,27.4,29.84,SSW,203,0.0,0.0,90,0.00,,,0.00,WUHU216HW,2013-02-20 07:24:00,
2013-02-19 23:25:00,29.9,27.4,29.85,SSW,203,0.0,0.0,90,0.00,,,0.00,WUHU216HW,2013-02-20 07:25:00,
2013-02-19 23:27:00,29.9,27.1,29.85,SSW,203,0.0,0.0,89,0.00,,,0.00,WUHU216HW,2013-02-20 07:27:00,
2013-02-19 23:28:00,29.9,27.4,29.85,SSW,203,0.0,0.0,90,0.00,,,0.00,WUHU216HW,2013-02-20 07:28:00,
2013-02-19 23:29:00,29.9,27.4,29.85,SSW,203,0.0,0.0,90,0.00,,,0.00,WUHU216HW,2013-02-20 07:29:00,
2013-02-19 23:30:00,29.9,27.6,29.85,SSW,203,0.0,0.0,91,0.00,,,0.00,WUHU216HW,2013-02-20 07:30:00,
2013-02-19 23:32:00,29.9,27.6,29.85,SSW,203,0.0,0.0,91,0.00,,,0.00,WUHU216HW,2013-02-20 07:32:00,
2013-02-19 23:33:00,29.9,27.6,29.85,SSW,203,0.0,0.0,91,0.00,,,0.00,WUHU216HW,2013-02-20 07:33:00,
2013-02-19 23:34:00,29.9,27.6,29.85,SSW,203,0.0,0.0,91,0.00,,,0.00,WUHU216HW,2013-02-20 07:34:00,
2013-02-19 23:35:00,29.9,27.6,29.85,SSW,203,0.0,0.0,91,0.00,,,0.00,WUHU216HW,2013-02-20 07:35:00,
2013-02-19 23:37:00,29.9,27.4,29.85,SSW,203,0.0,0.0,90,0.00,,,0.00,WUHU216HW,2013-02-20 07:37:00,
2013-02-19 23:38:00,29.7,27.2,29.85,SSW,203,0.0,0.0,90,0.00,,,0.00,WUHU216HW,2013-02-20 07:38:00,
2013-02-19 23:39:00,29.7,27.2,29.85,SSW,203,0.0,0.0,90,0.00,,,0.00,WUHU216HW,2013-02-20 07:39:00,
2013-02-19 23:40:00,29.7,27.2,29.85,SSW,203,0.0,0.0,90,0.00,,,0.00,WUHU216HW,2013-02-20 07:40:00,
2013-02-19 23:41:00,29.7,27.2,29.85,SSW,203,0.0,0.0,90,0.00,,,0.00,WUHU216HW,2013-02-20 07:41:00,
2013-02-19 23:43:00,29.7,27.2,29.85,South,180,0.0,0.0,90,0.00,,,0.00,WUHU216HW,2013-02-20 07:43:00,
2013-02-19 23:44:00,29.7,27.2,29.85,South,180,0.9,0.9,90,0.00,,,0.00,WUHU216HW,2013-02-20 07:44:00,
2013-02-19 23:45:00,29.5,27.0,29.85,South,180,0.4,0.9,90,0.00,,,0.00,WUHU216HW,2013-02-20 07:45:00,
2013-02-19 23:46:00,29.5,27.0,29.85,South,180,0.0,0.9,90,0.00,,,0.00,WUHU216HW,2013-02-20 07:46:00,
2013-02-19 23:48:00,29.5,26.7,29.85,South,180,0.4,0.9,89,0.00,,,0.00,WUHU216HW,2013-02-20 07:48:00,
2013-02-19 23:49:00,29.5,26.7,29.85,South,180,0.0,0.9,89,0.00,,,0.00,WUHU216HW,2013-02-20 07:49:00,
2013-02-19 23:50:00,29.5,26.7,29.85,South,180,0.0,0.9,89,0.00,,,0.00,WUHU216HW,2013-02-20 07:50:00,
2013-02-19 23:51:00,29.3,26.8,29.85,South,180,0.0,0.9,90,0.00,,,0.00,WUHU216HW,2013-02-20 07:51:00,
2013-02-19 23:53:00,29.2,26.6,29.85,SSE,158,0.0,0.9,90,0.00,,,0.00,WUHU216HW,2013-02-20 07:53:00,
2013-02-19 23:54:00,29.2,26.6,29.85,SSE,158,0.0,0.4,90,0.00,,,0.00,WUHU216HW,2013-02-20 07:54:00,
2013-02-19 23:55:00,29.2,26.6,29.85,SSE,158,0.0,0.4,90,0.00,,,0.00,WUHU216HW,2013-02-20 07:55:00,
2013-02-19 23:56:00,29.2,26.6,29.86,SSE,158,0.0,0.4,90,0.00,,,0.00,WUHU216HW,2013-02-20 07:56:00,
2013-02-19 23:57:00,29.2,26.6,29.86,SSE,158,0.0,0.0,90,0.00,,,0.00,WUHU216HW,2013-02-20 07:57:00,
2013-02-19 23:59:00,29.2,26.9,29.85,SSE,158,0.0,0.0,91,0.00,,,0.00,WUHU216HW,2013-02-20 07:59:00,